DL9MFL-6 Weather Reports


time (UTC)temp
C
wind
direction
speed
KPH
gust
KPH
rain 1hr
cm
rain 24hr
cm
rain mn
cm
humidity
%
barometer
mb
20260904103833 26 223 14.5 27.4 0.00 0.00 0.00 46 1017.3
20260904103829 26 258 14.5 27.4 0.00 0.00 0.00 46 1017.2
20260904103817 26 205 14.5 27.4 0.00 0.00 0.00 47 1017.2
20260904103813 26 207 14.5 27.4 0.00 0.00 0.00 46 1017.3
20260904103529 26 259 14.5 27.4 0.00 0.00 0.00 46 1017.3
20260904103428 26 259 14.5 27.4 0.00 0.00 0.00 47 1017.3
20260904103329 26 255 14.5 27.4 0.00 0.00 0.00 47 1017.4
20260904103325 26 273 14.5 27.4 0.00 0.00 0.00 48 1017.4
20260904103316 26 270 14.5 27.4 0.00 0.00 0.00 48 1017.3
20260904103312 26 249 14.5 27.4 0.00 0.00 0.00 47 1017.4
20260904103029 26 248 14.5 27.4 0.00 0.00 0.00 48 1017.4
20260904102929 26 248 14.5 27.4 0.00 0.00 0.00 47 1017.4
20260904102829 26 211 12.9 27.4 0.00 0.00 0.00 47 1017.4
20260904102729 26 274 12.9 27.4 0.00 0.00 0.00 47 1017.3
20260904102629 26 225 12.9 27.4 0.00 0.00 0.00 47 1017.5
20260904102600 26 210 12.9 27.4 0.00 0.00 0.00 48 1017.4
20260904102528 26 238 12.9 27.4 0.00 0.00 0.00 48 1017.4
20260904102429 26 241 11.3 27.4 0.00 0.00 0.00 48 1017.4
20260904102322 25 206 11.3 27.4 0.00 0.00 0.00 49 1017.5
20260904102223 25 245 9.7 22.5 0.00 0.00 0.00 49 1017.4
20260904102122 25 190 9.7 22.5 0.00 0.00 0.00 48 1017.4
20260904102100 25 241 9.7 22.5 0.00 0.00 0.00 48 1017.4
20260904102021 25 235 11.3 22.5 0.00 0.00 0.00 47 1017.4
20260904101921 25 238 11.3 22.5 0.00 0.00 0.00 48 1017.5
20260904101821 25 228 11.3 22.5 0.00 0.00 0.00 49 1017.5
20260904101817 25 245 11.3 22.5 0.00 0.00 0.00 49 1017.4
20260904101813 25 265 11.3 22.5 0.00 0.00 0.00 49 1017.5
20260904101522 25 258 11.3 22.5 0.00 0.00 0.00 48 1017.5
20260904101422 25 232 11.3 24.1 0.00 0.00 0.00 48 1017.6
20260904101322 25 214 11.3 24.1 0.00 0.00 0.00 48 1017.5
20260904101222 25 207 11.3 24.1 0.00 0.00 0.00 48 1017.6
20260904101118 25 236 11.3 24.1 0.00 0.00 0.00 49 1017.6
20260904101101 25 230 11.3 24.1 0.00 0.00 0.00 49 1017.6
20260904101017 25 208 11.3 24.1 0.00 0.00 0.00 49 1017.8
20260904100917 25 200 11.3 24.1 0.00 0.00 0.00 49 1017.6
20260904100817 25 278 11.3 24.1 0.00 0.00 0.00 48 1017.8
20260904100717 25 197 9.7 24.1 0.00 0.00 0.00 47 1017.8
20260904100618 25 227 9.7 24.1 0.00 0.00 0.00 48 1017.8
20260904100601 25 205 9.7 24.1 0.00 0.00 0.00 48 1017.8
20260904100518 25 257 9.7 24.1 0.00 0.00 0.00 48 1017.8
20260904100418 25 196 9.7 22.5 0.00 0.00 0.00 48 1017.8
20260904100318 25 264 9.7 22.5 0.00 0.00 0.00 50 1017.9
20260904100218 25 207 9.7 19.3 0.00 0.00 0.00 48 1017.8
20260904100118 25 282 9.7 22.5 0.00 0.00 0.00 49 1017.8
20260904100100 25 215 9.7 22.5 0.00 0.00 0.00 49 1017.8
20260904100017 25 237 11.3 22.5 0.00 0.00 0.00 50 1017.9
20260904095918 25 262 11.3 22.5 0.00 0.00 0.00 49 1017.8
20260904095818 25 279 11.3 22.5 0.00 0.00 0.00 51 1017.9
20260904095717 25 273 11.3 22.5 0.00 0.00 0.00 51 1017.9
20260904095617 25 249 11.3 22.5 0.00 0.00 0.00 51 1017.9
20260904095600 25 234 11.3 22.5 0.00 0.00 0.00 51 1017.9
20260904095555 25 199 12.9 20.9 0.00 0.00 0.00 48 1018.1
20260904095544 25 252 11.3 22.5 0.00 0.00 0.00 51 1017.9
20260904095539 25 326 12.9 22.5 0.00 0.00 0.00 50 1018.0
20260904095320 25 217 12.9 22.5 0.00 0.00 0.00 50 1018.0
20260904095316 25 228 12.9 22.5 0.00 0.00 0.00 49 1018.0
20260904095312 25 198 12.9 20.9 0.00 0.00 0.00 48 1018.1
20260904095014 25 217 12.9 22.5 0.00 0.00 0.00 48 1018.0
20260904094912 25 235 12.9 22.5 0.00 0.00 0.00 49 1018.1
20260904094811 25 252 12.9 22.5 0.00 0.00 0.00 50 1018.0
20260904094712 25 213 12.9 22.5 0.00 0.00 0.00 49 1018.0
20260904094612 25 257 12.9 22.5 0.00 0.00 0.00 50 1018.1
20260904094602 25 204 12.9 22.5 0.00 0.00 0.00 50 1018.1
20260904094512 25 204 11.3 22.5 0.00 0.00 0.00 49 1018.1
20260904094412 25 217 11.3 22.5 0.00 0.00 0.00 49 1018.0
20260904094312 25 202 11.3 22.5 0.00 0.00 0.00 50 1018.1
20260904094211 25 238 11.3 22.5 0.00 0.00 0.00 50 1018.1
20260904094111 25 229 9.7 22.5 0.00 0.00 0.00 50 1018.1
20260904094059 25 246 9.7 22.5 0.00 0.00 0.00 50 1018.1
20260904094007 25 214 9.7 19.3 0.00 0.00 0.00 51 1018.2
20260904093907 25 251 9.7 19.3 0.00 0.00 0.00 51 1018.1
20260904093808 24 292 9.7 19.3 0.00 0.00 0.00 52 1018.0
20260904093708 24 267 9.7 16.1 0.00 0.00 0.00 52 1018.2
20260904093608 24 301 9.7 16.1 0.00 0.00 0.00 51 1018.2
20260904093559 24 273 9.7 16.1 0.00 0.00 0.00 51 1018.2
20260904093507 24 250 11.3 19.3 0.00 0.00 0.00 51 1018.2
20260904093407 24 240 11.3 19.3 0.00 0.00 0.00 51 1018.2
20260904093307 24 284 11.3 19.3 0.00 0.00 0.00 52 1018.2
20260904093207 24 202 11.3 19.3 0.00 0.00 0.00 52 1018.3
20260904093107 24 196 11.3 19.3 0.00 0.00 0.00 52 1018.2
20260904093100 24 240 11.3 19.3 0.00 0.00 0.00 52 1018.2
20260904093008 24 244 11.3 19.3 0.00 0.00 0.00 52 1018.3
20260904092908 24 246 11.3 19.3 0.00 0.00 0.00 52 1018.2
20260904092829 24 222 11.3 20.9 0.00 0.00 0.00 51 1018.3
20260904092821 24 275 11.3 20.9 0.00 0.00 0.00 51 1018.2
20260904092817 24 268 11.3 20.9 0.00 0.00 0.00 51 1018.3
20260904092813 24 206 11.3 20.9 0.00 0.00 0.00 51 1018.3
20260904092508 24 192 11.3 20.9 0.00 0.00 0.00 52 1018.4
20260904092408 24 237 11.3 20.9 0.00 0.00 0.00 53 1018.3
20260904092312 24 257 11.3 20.9 0.00 0.00 0.00 53 1018.3
20260904092208 24 270 9.7 20.9 0.00 0.00 0.00 53 1018.3
20260904092104 24 277 9.7 20.9 0.00 0.00 0.00 52 1018.3
20260904092059 24 288 9.7 20.9 0.00 0.00 0.00 52 1018.3
20260904092001 24 215 9.7 20.9 0.00 0.00 0.00 51 1018.4
20260904091901 24 239 9.7 20.9 0.00 0.00 0.00 51 1018.3
20260904091827 23 226 9.7 19.3 0.00 0.00 0.00 51 1018.4
20260904091820 24 200 9.7 17.7 0.00 0.00 0.00 51 1018.4
20260904091815 23 192 9.7 19.3 0.00 0.00 0.00 51 1018.4
20260904091811 23 226 9.7 19.3 0.00 0.00 0.00 51 1018.4
20260904091551 23 226 9.7 19.3 0.00 0.00 0.00 55 1018.5
20260904091543 23 211 9.7 19.3 0.00 0.00 0.00 54 1018.4
20260904091540 23 222 9.7 19.3 0.00 0.00 0.00 53 1018.4
20260904091320 23 258 9.7 19.3 0.00 0.00 0.00 54 1018.5
20260904091316 23 250 9.7 19.3 0.00 0.00 0.00 54 1018.5
20260904091312 23 226 9.7 19.3 0.00 0.00 0.00 55 1018.5
20260904091001 23 273 9.7 22.5 0.00 0.00 0.00 53 1018.5
20260904090902 23 292 9.7 24.1 0.00 0.00 0.00 54 1018.5
20260904090801 23 268 9.7 24.1 0.00 0.00 0.00 54 1018.5
20260904090700 23 221 9.7 24.1 0.00 0.00 0.00 53 1018.6
20260904090603 23 212 9.7 24.1 0.00 0.00 0.00 54 1018.5
20260904090559 23 212 9.7 24.1 0.00 0.00 0.00 54 1018.5
20260904090502 23 257 9.7 24.1 0.00 0.00 0.00 53 1018.6
20260904090401 23 226 11.3 24.1 0.00 0.00 0.00 52 1018.5
20260904090304 23 228 11.3 24.1 0.00 0.00 0.00 53 1018.6
20260904090200 23 215 11.3 24.1 0.00 0.00 0.00 53 1018.6
20260904090103 23 217 9.7 24.1 0.00 0.00 0.00 53 1018.6
20260904090059 23 217 9.7 24.1 0.00 0.00 0.00 53 1018.6
20260904090000 23 237 9.7 24.1 0.00 0.00 0.00 53 1018.6
20260904085901 23 229 9.7 19.3 0.00 0.00 0.00 54 1018.5
20260904085829 23 217 9.7 19.3 0.00 0.00 0.00 54 1018.5
20260904085822 23 212 9.7 19.3 0.00 0.00 0.00 53 1018.6
20260904085815 23 230 9.7 19.3 0.00 0.00 0.00 53 1018.6
20260904085811 23 217 9.7 19.3 0.00 0.00 0.00 54 1018.5
20260904085501 23 258 9.7 19.3 0.00 0.00 0.00 54 1018.5
20260904085401 23 217 9.7 16.1 0.00 0.00 0.00 54 1018.5
20260904085301 23 223 8.0 16.1 0.00 0.00 0.00 54 1018.6
20260904085201 23 196 9.7 19.3 0.00 0.00 0.00 54 1018.6
20260904085104 23 237 9.7 19.3 0.00 0.00 0.00 55 1018.6
20260904085100 23 237 9.7 19.3 0.00 0.00 0.00 55 1018.6
20260904085001 23 235 9.7 19.3 0.00 0.00 0.00 54 1018.6
20260904084901 23 232 9.7 19.3 0.00 0.00 0.00 55 1018.5
20260904084801 23 221 9.7 19.3 0.00 0.00 0.00 54 1018.6
20260904084701 23 266 9.7 19.3 0.00 0.00 0.00 55 1018.6
20260904084601 23 232 9.7 19.3 0.00 0.00 0.00 55 1018.6
20260904084557 23 232 9.7 19.3 0.00 0.00 0.00 55 1018.6
20260904084501 23 236 9.7 19.3 0.00 0.00 0.00 54 1018.6
20260904084401 23 225 11.3 19.3 0.00 0.00 0.00 54 1018.6
20260904084301 23 225 11.3 19.3 0.00 0.00 0.00 54 1018.6
20260904084201 23 227 11.3 17.7 0.00 0.00 0.00 55 1018.6
20260904084102 23 272 11.3 16.1 0.00 0.00 0.00 54 1018.6
20260904084058 23 272 11.3 16.1 0.00 0.00 0.00 54 1018.6
20260904084000 23 251 9.7 16.1 0.00 0.00 0.00 55 1018.6
20260904083900 22 259 11.3 17.7 0.00 0.00 0.00 55 1018.7
20260904083801 22 233 11.3 17.7 0.00 0.00 0.00 55 1018.6
20260904083701 22 246 11.3 19.3 0.00 0.00 0.00 55 1018.6
20260904083603 22 257 11.3 20.9 0.00 0.00 0.00 55 1018.7
20260904083558 22 257 11.3 20.9 0.00 0.00 0.00 55 1018.7
20260904083501 22 273 11.3 20.9 0.00 0.00 0.00 55 1018.7
20260904083402 22 265 11.3 20.9 0.00 0.00 0.00 56 1018.7
20260904083326 22 257 11.3 20.9 0.00 0.00 0.00 55 1018.7
20260904083319 22 269 11.3 20.9 0.00 0.00 0.00 56 1018.7
20260904083312 22 227 11.3 20.9 0.00 0.00 0.00 55 1018.7
20260904083307 22 248 11.3 20.9 0.00 0.00 0.00 55 1018.7
20260904083001 22 271 11.3 20.9 0.00 0.00 0.00 55 1018.7
20260904082901 22 234 11.3 20.9 0.00 0.00 0.00 54 1018.7
20260904082801 22 275 11.3 20.9 0.00 0.00 0.00 55 1018.8
20260904082701 22 260 11.3 20.9 0.00 0.00 0.00 55 1018.7
20260904082601 22 310 9.7 17.7 0.00 0.00 0.00 55 1018.8
20260904082556 22 259 9.7 17.7 0.00 0.00 0.00 55 1018.8
20260904082501 22 268 9.7 17.7 0.00 0.00 0.00 56 1018.8
20260904082400 22 252 9.7 17.7 0.00 0.00 0.00 56 1018.8
20260904082300 22 274 9.7 17.7 0.00 0.00 0.00 57 1018.8
20260904082200 22 245 9.7 19.3 0.00 0.00 0.00 57 1018.8
20260904082101 22 264 9.7 19.3 0.00 0.00 0.00 56 1018.8
20260904082053 22 263 9.7 19.3 0.00 0.00 0.00 56 1018.8
20260904082001 22 253 9.7 19.3 0.00 0.00 0.00 56 1018.8
20260904081901 22 266 9.7 19.3 0.00 0.00 0.00 56 1018.8
20260904081801 22 259 9.7 19.3 0.00 0.00 0.00 57 1018.8
20260904081701 22 211 11.3 19.3 0.00 0.00 0.00 56 1018.8
20260904081601 22 268 12.9 19.3 0.00 0.00 0.00 56 1018.8
20260904081552 22 266 12.9 19.3 0.00 0.00 0.00 56 1018.8
20260904081501 22 273 12.9 19.3 0.00 0.00 0.00 55 1018.8
20260904081401 22 292 12.9 19.3 0.00 0.00 0.00 56 1018.8
20260904081301 22 253 12.9 19.3 0.00 0.00 0.00 56 1018.8
20260904081201 22 263 12.9 20.9 0.00 0.00 0.00 56 1018.9
20260904081101 22 284 12.9 22.5 0.00 0.00 0.00 56 1018.8
20260904081050 22 269 12.9 22.5 0.00 0.00 0.00 56 1018.8
20260904081000 22 229 12.9 22.5 0.00 0.00 0.00 55 1018.8
20260904080901 22 259 11.3 22.5 0.00 0.00 0.00 55 1018.8
20260904080801 22 298 11.3 22.5 0.00 0.00 0.00 56 1018.8
20260904080700 22 232 11.3 22.5 0.00 0.00 0.00 56 1018.8
20260904080601 22 265 9.7 22.5 0.00 0.00 0.00 57 1018.9
20260904080547 22 244 9.7 22.5 0.00 0.00 0.00 57 1018.9
20260904080501 22 265 9.7 22.5 0.00 0.00 0.00 56 1018.8
20260904080401 22 279 9.7 22.5 0.00 0.00 0.00 57 1018.8
20260904080301 22 247 9.7 22.5 0.00 0.00 0.00 57 1018.8
20260904080200 22 277 8.0 22.5 0.00 0.00 0.00 57 1018.9
20260904080101 22 249 8.0 22.5 0.00 0.00 0.00 58 1018.8
20260904080046 22 254 8.0 22.5 0.00 0.00 0.00 57 1018.8
20260904080001 22 269 9.7 16.1 0.00 0.00 0.00 56 1018.8
20260904075901 22 252 9.7 20.9 0.00 0.00 0.00 57 1018.8
20260904075801 22 237 9.7 20.9 0.00 0.00 0.00 57 1018.8
20260904075658 21 221 9.7 20.9 0.00 0.00 0.00 57 1018.9
20260904075556 21 233 9.7 20.9 0.00 0.00 0.00 58 1018.9
20260904075545 21 241 9.7 20.9 0.00 0.00 0.00 57 1018.9
20260904075455 21 217 9.7 20.9 0.00 0.00 0.00 57 1018.8
20260904075355 21 234 9.7 20.9 0.00 0.00 0.00 57 1018.9
20260904075255 21 221 9.7 20.9 0.00 0.00 0.00 57 1018.9
20260904075151 21 265 9.7 20.9 0.00 0.00 0.00 57 1018.9
20260904075051 21 216 9.7 20.9 0.00 0.00 0.00 58 1018.9
20260904075046 21 208 9.7 20.9 0.00 0.00 0.00 58 1018.9
20260904074952 21 284 9.7 20.9 0.00 0.00 0.00 58 1018.9
20260904074852 21 221 11.3 17.7 0.00 0.00 0.00 58 1018.9
20260904074751 21 244 11.3 17.7 0.00 0.00 0.00 58 1018.9
20260904074649 21 225 11.3 17.7 0.00 0.00 0.00 58 1018.9
20260904074549 21 223 11.3 17.7 0.00 0.00 0.00 58 1018.9
20260904074545 21 215 11.3 17.7 0.00 0.00 0.00 58 1018.9
20260904074449 21 223 11.3 17.7 0.00 0.00 0.00 58 1018.9
20260904074347 21 211 11.3 17.7 0.00 0.00 0.00 58 1018.9
20260904074245 21 224 11.3 17.7 0.00 0.00 0.00 59 1019.0
20260904074145 21 240 11.3 17.7 0.00 0.00 0.00 59 1019.0
20260904074048 21 225 11.3 17.7 0.00 0.00 0.00 59 1019.0
20260904074044 21 253 11.3 17.7 0.00 0.00 0.00 59 1019.0
20260904073946 21 236 9.7 17.7 0.00 0.00 0.00 59 1019.0
20260904073845 21 238 9.7 17.7 0.00 0.00 0.00 59 1019.0
20260904073745 21 235 9.7 17.7 0.00 0.00 0.00 60 1019.0
20260904073644 21 225 9.7 17.7 0.00 0.00 0.00 60 1019.0
20260904073543 21 249 9.7 17.7 0.00 0.00 0.00 60 1019.0
20260904073443 21 276 9.7 17.7 0.00 0.00 0.00 60 1019.0
20260904073343 21 244 9.7 17.7 0.00 0.00 0.00 60 1019.0
20260904073243 21 250 8.0 16.1 0.00 0.00 0.00 61 1019.0
20260904073143 21 231 8.0 16.1 0.00 0.00 0.00 61 1019.0
20260904073043 21 220 8.0 16.1 0.00 0.00 0.00 60 1019.0
20260904072939 21 227 8.0 16.1 0.00 0.00 0.00 61 1019.0
20260904072838 21 219 9.7 16.1 0.00 0.00 0.00 60 1019.0
20260904072738 20 221 9.7 17.7 0.00 0.00 0.00 61 1019.1
20260904072637 20 215 9.7 17.7 0.00 0.00 0.00 62 1019.2
20260904072536 20 217 9.7 17.7 0.00 0.00 0.00 62 1019.1
20260904072433 20 222 8.0 17.7 0.00 0.00 0.00 62 1019.1
20260904072331 20 206 8.0 17.7 0.00 0.00 0.00 61 1019.1
20260904072231 20 194 8.0 17.7 0.00 0.00 0.00 61 1019.1
20260904072129 20 210 8.0 17.7 0.00 0.00 0.00 61 1019.1
20260904072029 20 221 8.0 17.7 0.00 0.00 0.00 62 1019.1
20260904072022 20 238 8.0 14.5 0.00 0.00 0.00 62 1019.0
20260904072015 20 236 8.0 17.7 0.00 0.00 0.00 62 1019.1
20260904072011 20 246 8.0 17.7 0.00 0.00 0.00 62 1019.1
20260904071753 20 228 8.0 17.7 0.00 0.00 0.00 63 1019.0
20260904071745 20 227 8.0 14.5 0.00 0.00 0.00 62 1019.1
20260904071741 20 238 8.0 14.5 0.00 0.00 0.00 62 1019.0
20260904071429 20 223 8.0 14.5 0.00 0.00 0.00 62 1019.1
20260904071329 20 213 8.0 14.5 0.00 0.00 0.00 64 1019.1
20260904071229 20 214 8.0 14.5 0.00 0.00 0.00 63 1019.0
20260904071129 20 232 8.0 14.5 0.00 0.00 0.00 64 1019.1
20260904071029 20 268 8.0 14.5 0.00 0.00 0.00 63 1019.1
20260904070929 20 236 8.0 12.9 0.00 0.00 0.00 63 1019.1
20260904070829 20 232 6.4 12.9 0.00 0.00 0.00 63 1019.2
20260904070729 20 235 6.4 12.9 0.00 0.00 0.00 63 1019.1
20260904070629 20 200 6.4 12.9 0.00 0.00 0.00 62 1019.1
20260904070529 20 220 6.4 12.9 0.00 0.00 0.00 63 1019.1
20260904070428 19 213 6.4 12.9 0.00 0.00 0.00 64 1019.1
20260904070328 19 221 6.4 12.9 0.00 0.00 0.00 64 1019.2
20260904070229 19 213 6.4 11.3 0.00 0.00 0.00 65 1019.2
20260904070129 19 252 6.4 11.3 0.00 0.00 0.00 65 1019.2
20260904070028 19 284 6.4 9.7 0.00 0.00 0.00 65 1019.1
20260904065929 19 263 4.8 9.7 0.00 0.00 0.00 66 1019.1
20260904065829 19 238 4.8 9.7 0.00 0.00 0.00 65 1019.2
20260904065729 19 215 4.8 11.3 0.00 0.00 0.00 65 1019.2
20260904065628 19 226 4.8 11.3 0.00 0.00 0.00 66 1019.2
20260904065529 19 221 4.8 11.3 0.00 0.00 0.00 66 1019.2
20260904065429 19 268 4.8 11.3 0.00 0.00 0.00 66 1019.3
20260904065329 18 227 4.8 12.9 0.00 0.00 0.00 66 1019.2
20260904065229 18 223 4.8 12.9 0.00 0.00 0.00 65 1019.2
20260904065129 18 232 6.4 12.9 0.00 0.00 0.00 66 1019.2
20260904065030 18 204 4.8 12.9 0.00 0.00 0.00 66 1019.2
20260904064929 18 239 4.8 12.9 0.00 0.00 0.00 67 1019.2
20260904064829 18 227 4.8 12.9 0.00 0.00 0.00 66 1019.2
20260904064729 18 271 4.8 12.9 0.00 0.00 0.00 67 1019.2
20260904064633 18 232 4.8 12.9 0.00 0.00 0.00 68 1019.2
20260904064529 18 234 6.4 16.1 0.00 0.00 0.00 68 1019.2
20260904064429 18 254 4.8 16.1 0.00 0.00 0.00 68 1019.2
20260904064330 18 201 4.8 16.1 0.00 0.00 0.00 69 1019.2
20260904064229 18 201 4.8 16.1 0.00 0.00 0.00 69 1019.2
20260904064129 18 235 4.8 16.1 0.00 0.00 0.00 69 1019.1
20260904064030 18 254 4.8 16.1 0.00 0.00 0.00 69 1019.1
20260904063929 17 261 4.8 16.1 0.00 0.00 0.00 69 1019.1
20260904063829 17 233 4.8 16.1 0.00 0.00 0.00 69 1019.2
20260904063729 17 255 4.8 16.1 0.00 0.00 0.00 70 1019.1
20260904063629 17 243 4.8 16.1 0.00 0.00 0.00 70 1019.2
20260904063529 17 246 3.2 8.0 0.00 0.00 0.00 70 1019.2
20260904063429 17 238 3.2 8.0 0.00 0.00 0.00 70 1019.1
20260904063329 17 237 3.2 8.0 0.00 0.00 0.00 71 1019.1
20260904063229 17 211 3.2 8.0 0.00 0.00 0.00 70 1019.1
20260904063128 17 200 3.2 8.0 0.00 0.00 0.00 70 1019.1
20260904063029 17 199 3.2 8.0 0.00 0.00 0.00 71 1019.1
20260904062928 17 213 3.2 8.0 0.00 0.00 0.00 72 1019.1
20260904062828 17 213 3.2 8.0 0.00 0.00 0.00 72 1019.1
20260904062728 17 221 3.2 8.0 0.00 0.00 0.00 72 1019.1
20260904062628 17 206 3.2 8.0 0.00 0.00 0.00 71 1019.1
20260904062527 17 205 1.6 8.0 0.00 0.00 0.00 72 1019.1
20260904062425 17 205 1.6 8.0 0.00 0.00 0.00 73 1019.1
20260904062321 16 205 1.6 8.0 0.00 0.00 0.00 74 1019.1
20260904062219 16 231 1.6 4.8 0.00 0.00 0.00 74 1019.1
20260904062119 16 231 1.6 3.2 0.00 0.00 0.00 73 1019.1
20260904062019 16 169 1.6 6.4 0.00 0.00 0.00 73 1019.1
20260904061919 16 168 1.6 6.4 0.00 0.00 0.00 73 1019.0
20260904061813 16 168 1.6 6.4 0.00 0.00 0.00 74 1019.1
20260904061713 16 168 1.6 6.4 0.00 0.00 0.00 74 1019.0
20260904061613 16 168 1.6 6.4 0.00 0.00 0.00 74 1019.1
20260904061513 16 168 1.6 6.4 0.00 0.00 0.00 74 1019.1
20260904061413 16 168 1.6 6.4 0.00 0.00 0.00 74 1019.1
20260904061313 16 168 1.6 6.4 0.00 0.00 0.00 74 1019.1
20260904061211 16 168 1.6 6.4 0.00 0.00 0.00 75 1019.1
20260904061111 16 168 1.6 6.4 0.00 0.00 0.00 75 1019.0
20260904061030 16 168 1.6 6.4 0.00 0.00 0.00 76 1019.0
20260904061009 16 168 1.6 6.4 0.00 0.00 0.00 76 1019.1
20260904060909 16 168 1.6 6.4 0.00 0.00 0.00 76 1019.1
20260904060809 16 168 1.6 6.4 0.00 0.00 0.00 76 1019.1
20260904060709 16 168 1.6 6.4 0.00 0.00 0.00 76 1019.1
20260904060609 16 168 1.6 6.4 0.00 0.00 0.00 76 1019.1
20260904060529 16 168 1.6 6.4 0.00 0.00 0.00 76 1019.1
20260904060518 16 195 1.6 4.8 0.00 0.00 0.00 75 1019.0
20260904060513 16 168 1.6 6.4 0.00 0.00 0.00 76 1019.0
20260904060509 16 168 1.6 6.4 0.00 0.00 0.00 76 1019.0
20260904060505 16 168 1.6 6.4 0.00 0.00 0.00 76 1019.0
20260904060248 16 191 1.6 4.8 0.00 0.00 0.00 76 1019.0
20260904060243 16 195 1.6 4.8 0.00 0.00 0.00 76 1019.0
20260904060005 16 195 1.6 4.8 0.00 0.00 0.00 75 1019.0
20260904055905 16 195 1.6 4.8 0.00 0.00 0.00 75 1019.1
20260904055805 16 195 1.6 4.8 0.00 0.00 0.00 75 1019.0
20260904055705 16 195 0.0 4.8 0.00 0.00 0.00 76 1019.0
20260904055605 16 195 1.6 4.8 0.00 0.00 0.00 75 1019.0
20260904055532 16 195 1.6 4.8 0.00 0.00 0.00 75 1019.0
20260904055503 16 195 0.0 4.8 0.00 0.00 0.00 75 1019.0
20260904055403 16 205 0.0 3.2 0.00 0.00 0.00 75 1019.1
20260904055306 16 205 0.0 3.2 0.00 0.00 0.00 75 1019.1
20260904055201 16 205 0.0 3.2 0.00 0.00 0.00 75 1019.1
20260904055101 16 205 0.0 3.2 0.00 0.00 0.00 75 1019.1
20260904055001 16 205 0.0 1.6 0.00 0.00 0.00 75 1019.1
20260904054901 17 205 0.0 1.6 0.00 0.00 0.00 75 1019.1
20260904054801 17 205 0.0 1.6 0.00 0.00 0.00 74 1019.1
20260904054701 17 205 0.0 1.6 0.00 0.00 0.00 74 1019.1
20260904054601 17 205 0.0 1.6 0.00 0.00 0.00 74 1019.1
20260904054501 17 205 0.0 3.2 0.00 0.00 0.00 74 1019.1
20260904054401 17 205 0.0 3.2 0.00 0.00 0.00 74 1019.1
20260904054301 17 205 0.0 3.2 0.00 0.00 0.00 74 1019.2
20260904054201 17 205 0.0 3.2 0.00 0.00 0.00 73 1019.2
20260904054101 17 205 0.0 3.2 0.00 0.00 0.00 73 1019.2
20260904054001 17 205 0.0 3.2 0.00 0.00 0.00 73 1019.2
20260904053901 17 205 0.0 3.2 0.00 0.00 0.00 73 1019.1
20260904053801 17 205 0.0 3.2 0.00 0.00 0.00 73 1019.1
20260904053700 17 205 0.0 3.2 0.00 0.00 0.00 73 1019.2
20260904053600 17 205 0.0 3.2 0.00 0.00 0.00 73 1019.1
20260904053529 17 205 0.0 1.6 0.00 0.00 0.00 73 1019.1
20260904053500 17 205 0.0 1.6 0.00 0.00 0.00 73 1019.2
20260904053400 17 205 0.0 9.7 0.00 0.00 0.00 72 1019.2
20260904053300 17 205 0.0 9.7 0.00 0.00 0.00 72 1019.2
20260904053201 17 205 0.0 9.7 0.00 0.00 0.00 72 1019.2
20260904053101 17 205 0.0 9.7 0.00 0.00 0.00 72 1019.2
20260904053006 17 205 0.0 9.7 0.00 0.00 0.00 72 1019.2
20260904052900 17 205 0.0 9.7 0.00 0.00 0.00 71 1019.2
20260904052800 17 205 0.0 9.7 0.00 0.00 0.00 71 1019.3
20260904052700 17 205 1.6 9.7 0.00 0.00 0.00 71 1019.2
20260904052600 17 205 1.6 9.7 0.00 0.00 0.00 71 1019.2
20260904052528 17 205 1.6 9.7 0.00 0.00 0.00 71 1019.2
20260904052501 17 205 1.6 9.7 0.00 0.00 0.00 71 1019.3
20260904052400 17 205 1.6 9.7 0.00 0.00 0.00 71 1019.2
20260904052300 17 205 3.2 9.7 0.00 0.00 0.00 70 1019.3
20260904052253 17 205 3.2 9.7 0.00 0.00 0.00 70 1019.3
20260904052246 17 205 3.2 9.7 0.00 0.00 0.00 70 1019.3
20260904052242 17 205 3.2 9.7 0.00 0.00 0.00 70 1019.3
20260904052001 17 205 3.2 9.7 0.00 0.00 0.00 69 1019.3
20260904051901 17 205 4.8 9.7 0.00 0.00 0.00 69 1019.3
20260904051801 17 205 4.8 9.7 0.00 0.00 0.00 69 1019.3
20260904051701 17 205 4.8 9.7 0.00 0.00 0.00 69 1019.3
20260904051601 17 205 4.8 9.7 0.00 0.00 0.00 68 1019.3
20260904051535 17 207 4.8 9.7 0.00 0.00 0.00 67 1019.3
20260904051529 17 205 4.8 9.7 0.00 0.00 0.00 68 1019.3
20260904051525 17 205 4.8 9.7 0.00 0.00 0.00 67 1019.3
20260904051517 17 226 4.8 9.7 0.00 0.00 0.00 67 1019.2
20260904051301 17 228 4.8 9.7 0.00 0.00 0.00 67 1019.3
20260904051243 17 207 4.8 9.7 0.00 0.00 0.00 67 1019.3
20260904051239 17 207 4.8 9.7 0.00 0.00 0.00 67 1019.3
20260904051000 17 217 4.8 9.7 0.00 0.00 0.00 67 1019.3
20260904050900 17 221 4.8 9.7 0.00 0.00 0.00 67 1019.3
20260904050801 17 221 4.8 9.7 0.00 0.00 0.00 67 1019.3
20260904050701 17 225 4.8 9.7 0.00 0.00 0.00 67 1019.3
20260904050601 18 212 4.8 9.7 0.00 0.00 0.00 67 1019.3
20260904050528 17 213 4.8 9.7 0.00 0.00 0.00 67 1019.3
20260904050501 18 224 4.8 8.0 0.00 0.00 0.00 67 1019.3
20260904050401 18 224 4.8 8.0 0.00 0.00 0.00 67 1019.2
20260904050301 18 225 4.8 8.0 0.00 0.00 0.00 67 1019.3
20260904050201 18 210 4.8 8.0 0.00 0.00 0.00 67 1019.3
20260904050101 18 211 4.8 8.0 0.00 0.00 0.00 67 1019.3
20260904050029 18 208 4.8 8.0 0.00 0.00 0.00 66 1019.3
20260904050025 18 221 3.2 8.0 0.00 0.00 0.00 66 1019.2
20260904050020 18 210 3.2 8.0 0.00 0.00 0.00 66 1019.3
20260904050008 18 210 3.2 8.0 0.00 0.00 0.00 66 1019.3
20260904050004 18 210 3.2 8.0 0.00 0.00 0.00 66 1019.3
20260904045744 18 211 3.2 8.0 0.00 0.00 0.00 66 1019.3
20260904045741 18 221 3.2 8.0 0.00 0.00 0.00 66 1019.2
20260904045501 18 231 3.2 8.0 0.00 0.00 0.00 66 1019.3
20260904045400 18 232 3.2 8.0 0.00 0.00 0.00 67 1019.2
20260904045301 18 234 4.8 11.3 0.00 0.00 0.00 66 1019.3
20260904045201 18 234 4.8 11.3 0.00 0.00 0.00 66 1019.2
20260904045101 18 234 4.8 11.3 0.00 0.00 0.00 66 1019.2
20260904045029 18 228 4.8 11.3 0.00 0.00 0.00 66 1019.2
20260904045001 18 228 4.8 11.3 0.00 0.00 0.00 66 1019.1
20260904044901 18 228 4.8 11.3 0.00 0.00 0.00 66 1019.2
20260904044801 18 228 4.8 11.3 0.00 0.00 0.00 66 1019.2
20260904044750 18 216 4.8 11.3 0.00 0.00 0.00 66 1019.2
20260904044744 18 215 4.8 11.3 0.00 0.00 0.00 66 1019.1
20260904044741 18 216 4.8 11.3 0.00 0.00 0.00 66 1019.2
20260904044501 18 217 4.8 11.3 0.00 0.00 0.00 66 1019.2
20260904044401 18 211 4.8 11.3 0.00 0.00 0.00 66 1019.2
20260904044301 18 226 4.8 11.3 0.00 0.00 0.00 66 1019.2
20260904044201 18 214 4.8 11.3 0.00 0.00 0.00 66 1019.2
20260904044101 18 213 4.8 11.3 0.00 0.00 0.00 66 1019.2
20260904044031 18 211 4.8 11.3 0.00 0.00 0.00 66 1019.2
20260904044001 18 211 3.2 11.3 0.00 0.00 0.00 66 1019.3
20260904043905 18 219 4.8 11.3 0.00 0.00 0.00 66 1019.3
20260904043801 18 219 3.2 11.3 0.00 0.00 0.00 66 1019.3
20260904043700 18 218 4.8 11.3 0.00 0.00 0.00 66 1019.3
20260904043600 18 216 4.8 11.3 0.00 0.00 0.00 66 1019.3
20260904043500 18 203 4.8 11.3 0.00 0.00 0.00 66 1019.3
20260904043401 18 238 4.8 11.3 0.00 0.00 0.00 66 1019.4
20260904043300 18 238 4.8 11.3 0.00 0.00 0.00 66 1019.4
20260904043200 18 236 4.8 11.3 0.00 0.00 0.00 66 1019.4
20260904043100 18 237 4.8 11.3 0.00 0.00 0.00 66 1019.4
20260904043029 18 227 4.8 11.3 0.00 0.00 0.00 66 1019.4
20260904043001 18 228 4.8 11.3 0.00 0.00 0.00 66 1019.4
20260904042900 18 227 4.8 11.3 0.00 0.00 0.00 66 1019.4
20260904042801 18 226 4.8 11.3 0.00 0.00 0.00 66 1019.4
20260904042700 18 227 3.2 11.3 0.00 0.00 0.00 65 1019.4
20260904042600 18 217 4.8 8.0 0.00 0.00 0.00 66 1019.4
20260904042525 18 224 3.2 8.0 0.00 0.00 0.00 65 1019.4
20260904042500 18 225 3.2 8.0 0.00 0.00 0.00 65 1019.4
20260904042401 18 204 3.2 8.0 0.00 0.00 0.00 66 1019.3
20260904042301 18 202 3.2 8.0 0.00 0.00 0.00 66 1019.4
20260904042200 18 202 3.2 8.0 0.00 0.00 0.00 65 1019.3
20260904042057 18 196 3.2 8.0 0.00 0.00 0.00 65 1019.3
20260904042022 18 196 3.2 8.0 0.00 0.00 0.00 65 1019.3
20260904041957 18 196 3.2 8.0 0.00 0.00 0.00 65 1019.4
20260904041857 18 233 3.2 8.0 0.00 0.00 0.00 65 1019.4
20260904041757 18 227 3.2 11.3 0.00 0.00 0.00 65 1019.4
20260904041655 18 237 3.2 11.3 0.00 0.00 0.00 65 1019.3
20260904041551 18 234 3.2 11.3 0.00 0.00 0.00 65 1019.4
20260904041523 18 230 3.2 11.3 0.00 0.00 0.00 65 1019.4
20260904041449 18 230 3.2 11.3 0.00 0.00 0.00 65 1019.4
20260904041353 18 230 4.8 11.3 0.00 0.00 0.00 65 1019.4
20260904041249 18 230 4.8 11.3 0.00 0.00 0.00 65 1019.4
20260904041149 18 229 4.8 11.3 0.00 0.00 0.00 65 1019.4
20260904041023 18 231 4.8 11.3 0.00 0.00 0.00 65 1019.4
20260904040947 18 257 4.8 11.3 0.00 0.00 0.00 65 1019.4
20260904040844 18 231 4.8 11.3 0.00 0.00 0.00 65 1019.5
20260904040744 18 232 4.8 9.7 0.00 0.00 0.00 65 1019.5
20260904040642 18 207 4.8 9.7 0.00 0.00 0.00 65 1019.5
20260904040523 18 207 4.8 11.3 0.00 0.00 0.00 65 1019.5
20260904040441 18 207 4.8 11.3 0.00 0.00 0.00 65 1019.5
20260904040341 18 200 4.8 11.3 0.00 0.00 0.00 65 1019.5
20260904040243 18 244 4.8 11.3 0.00 0.00 0.00 65 1019.7
20260904040239 18 237 4.8 11.3 0.00 0.00 0.00 65 1019.7
20260904040235 18 232 4.8 11.3 0.00 0.00 0.00 65 1019.7
20260904035931 18 269 4.8 11.3 0.00 0.00 0.00 65 1019.7
20260904035831 18 237 4.8 11.3 0.00 0.00 0.00 64 1019.7
20260904035731 18 236 4.8 11.3 0.00 0.00 0.00 64 1019.7
20260904035631 18 229 4.8 11.3 0.00 0.00 0.00 64 1019.7
20260904035522 18 223 4.8 9.7 0.00 0.00 0.00 64 1019.7
20260904035517 18 213 4.8 11.3 0.00 0.00 0.00 65 1019.7
20260904035508 18 223 4.8 9.7 0.00 0.00 0.00 65 1019.7
20260904035500 18 233 4.8 11.3 0.00 0.00 0.00 65 1019.7
20260904035243 18 234 4.8 11.3 0.00 0.00 0.00 64 1019.7
20260904035239 18 215 4.8 11.3 0.00 0.00 0.00 64 1019.7
20260904035235 18 213 4.8 11.3 0.00 0.00 0.00 65 1019.7
20260904034929 18 206 4.8 11.3 0.00 0.00 0.00 64 1019.7
20260904034829 18 206 4.8 11.3 0.00 0.00 0.00 64 1019.7
20260904034729 18 205 4.8 11.3 0.00 0.00 0.00 65 1019.7
20260904034629 18 217 4.8 11.3 0.00 0.00 0.00 65 1019.7
20260904034529 18 224 4.8 11.3 0.00 0.00 0.00 64 1019.7
20260904034523 18 225 4.8 11.3 0.00 0.00 0.00 64 1019.7
20260904034512 18 220 4.8 11.3 0.00 0.00 0.00 64 1019.8
20260904034508 18 213 4.8 11.3 0.00 0.00 0.00 64 1019.7
20260904034500 18 215 4.8 9.7 0.00 0.00 0.00 64 1019.7
20260904034243 18 217 4.8 9.7 0.00 0.00 0.00 64 1019.7
20260904034239 18 231 4.8 9.7 0.00 0.00 0.00 64 1019.8
20260904034235 18 221 4.8 9.7 0.00 0.00 0.00 64 1019.8
20260904033929 18 220 4.8 11.3 0.00 0.00 0.00 65 1019.8
20260904033829 18 225 4.8 11.3 0.00 0.00 0.00 65 1019.8
20260904033729 18 223 4.8 11.3 0.00 0.00 0.00 64 1019.8
20260904033629 18 223 4.8 11.3 0.00 0.00 0.00 64 1019.8
20260904033529 18 236 4.8 11.3 0.00 0.00 0.00 64 1019.8
20260904033522 18 236 4.8 11.3 0.00 0.00 0.00 64 1019.9
20260904033428 18 209 4.8 11.3 0.00 0.00 0.00 65 1019.9
20260904033329 18 215 4.8 11.3 0.00 0.00 0.00 64 1019.9
20260904033229 18 217 4.8 11.3 0.00 0.00 0.00 64 1019.8
20260904033129 18 232 4.8 11.3 0.00 0.00 0.00 65 1019.9
20260904033029 18 211 4.8 11.3 0.00 0.00 0.00 64 1019.8
20260904033022 18 211 4.8 12.9 0.00 0.00 0.00 64 1019.8
20260904032928 18 253 4.8 12.9 0.00 0.00 0.00 64 1019.8
20260904032828 18 216 4.8 12.9 0.00 0.00 0.00 64 1019.9
20260904032728 18 257 4.8 12.9 0.00 0.00 0.00 64 1019.9
20260904032629 18 241 4.8 12.9 0.00 0.00 0.00 64 1019.9
20260904032523 18 214 4.8 12.9 0.00 0.00 0.00 65 1019.9
20260904032429 18 229 4.8 12.9 0.00 0.00 0.00 65 1019.8
20260904032333 18 221 4.8 12.9 0.00 0.00 0.00 64 1019.9
20260904032229 18 232 4.8 12.9 0.00 0.00 0.00 65 1019.8
20260904032130 18 233 4.8 12.9 0.00 0.00 0.00 64 1019.8
20260904032029 18 229 4.8 12.9 0.00 0.00 0.00 64 1019.8
20260904032022 18 242 4.8 12.9 0.00 0.00 0.00 64 1019.8
20260904031928 18 219 4.8 9.7 0.00 0.00 0.00 65 1019.8
20260904031830 18 209 4.8 9.7 0.00 0.00 0.00 64 1019.8
20260904031747 18 223 6.4 12.9 0.00 0.00 0.00 64 1019.7
20260904031740 18 205 4.8 9.7 0.00 0.00 0.00 65 1019.8
20260904031736 18 267 4.8 9.7 0.00 0.00 0.00 64 1019.8
20260904031732 18 219 4.8 11.3 0.00 0.00 0.00 64 1019.8
20260904031727 18 218 4.8 11.3 0.00 0.00 0.00 64 1019.8
20260904031511 18 223 4.8 12.9 0.00 0.00 0.00 64 1019.8
20260904031507 18 229 4.8 12.9 0.00 0.00 0.00 65 1019.8
20260904031243 18 227 4.8 12.9 0.00 0.00 0.00 64 1019.8
20260904031239 18 217 4.8 12.9 0.00 0.00 0.00 64 1019.8
20260904031235 18 223 6.4 12.9 0.00 0.00 0.00 64 1019.7
20260904030929 18 222 6.4 12.9 0.00 0.00 0.00 64 1019.7
20260904030829 18 217 6.4 12.9 0.00 0.00 0.00 64 1019.7
20260904030729 18 227 6.4 12.9 0.00 0.00 0.00 64 1019.7
20260904030629 18 254 6.4 12.9 0.00 0.00 0.00 65 1019.7
20260904030529 18 219 6.4 12.9 0.00 0.00 0.00 64 1019.7
20260904030523 18 215 6.4 12.9 0.00 0.00 0.00 64 1019.8
20260904030429 18 222 6.4 12.9 0.00 0.00 0.00 64 1019.8
20260904030329 18 209 6.4 12.9 0.00 0.00 0.00 64 1019.8
20260904030229 18 209 6.4 12.9 0.00 0.00 0.00 65 1019.8
20260904030129 18 197 6.4 12.9 0.00 0.00 0.00 65 1019.8
20260904030030 18 229 6.4 12.9 0.00 0.00 0.00 64 1019.8
20260904030018 18 229 6.4 12.9 0.00 0.00 0.00 64 1019.7
20260904025928 18 209 6.4 12.9 0.00 0.00 0.00 64 1019.7
20260904025828 18 210 6.4 12.9 0.00 0.00 0.00 64 1019.8
20260904025729 18 250 6.4 12.9 0.00 0.00 0.00 64 1019.8
20260904025628 18 239 6.4 12.9 0.00 0.00 0.00 65 1019.8
20260904025529 18 238 6.4 12.9 0.00 0.00 0.00 64 1019.8
20260904025511 18 239 6.4 12.9 0.00 0.00 0.00 64 1019.8
20260904025429 18 232 6.4 12.9 0.00 0.00 0.00 65 1019.8
20260904025329 18 240 6.4 12.9 0.00 0.00 0.00 65 1019.8
20260904025228 18 232 6.4 12.9 0.00 0.00 0.00 64 1019.8
20260904025129 18 217 6.4 12.9 0.00 0.00 0.00 65 1019.9
20260904025028 18 218 6.4 12.9 0.00 0.00 0.00 65 1019.9
20260904025011 18 225 6.4 12.9 0.00 0.00 0.00 65 1019.9
20260904024928 18 205 6.4 12.9 0.00 0.00 0.00 64 1019.9
20260904024829 18 213 6.4 12.9 0.00 0.00 0.00 64 1019.9
20260904024729 18 209 6.4 12.9 0.00 0.00 0.00 64 1019.9
20260904024725 18 242 6.4 12.9 0.00 0.00 0.00 65 1019.9
20260904024721 18 227 6.4 12.9 0.00 0.00 0.00 65 1019.9
20260904024428 18 229 6.4 12.9 0.00 0.00 0.00 64 1019.9
20260904024329 18 213 6.4 12.9 0.00 0.00 0.00 64 1019.9
20260904024229 18 207 6.4 12.9 0.00 0.00 0.00 64 1019.9
20260904024129 18 227 6.4 12.9 0.00 0.00 0.00 65 1019.9
20260904024029 18 204 6.4 12.9 0.00 0.00 0.00 64 1019.9
20260904024010 18 203 6.4 12.9 0.00 0.00 0.00 64 1019.9
20260904023929 18 240 6.4 12.9 0.00 0.00 0.00 64 1019.9
20260904023829 18 227 6.4 12.9 0.00 0.00 0.00 64 1019.9
20260904023729 18 218 6.4 12.9 0.00 0.00 0.00 64 1019.9
20260904023629 18 219 6.4 12.9 0.00 0.00 0.00 64 1020.0
20260904023529 18 217 6.4 11.3 0.00 0.00 0.00 64 1020.0
20260904023510 18 219 6.4 11.3 0.00 0.00 0.00 64 1020.0
20260904023428 18 249 6.4 11.3 0.00 0.00 0.00 64 1020.0
20260904023328 18 234 6.4 11.3 0.00 0.00 0.00 64 1020.0
20260904023237 18 205 6.4 12.9 0.00 0.00 0.00 64 1020.0
20260904023232 18 220 6.4 11.3 0.00 0.00 0.00 64 1020.0
20260904023228 18 209 6.4 12.9 0.00 0.00 0.00 64 1020.0
20260904023224 18 209 6.4 12.9 0.00 0.00 0.00 64 1020.0
20260904022928 18 235 6.4 12.9 0.00 0.00 0.00 64 1020.0
20260904022828 18 247 6.4 12.9 0.00 0.00 0.00 64 1020.0
20260904022728 18 225 6.4 12.9 0.00 0.00 0.00 64 1020.0
20260904022628 18 238 6.4 12.9 0.00 0.00 0.00 64 1020.0
20260904022529 18 227 6.4 12.9 0.00 0.00 0.00 64 1020.0
20260904022508 18 230 6.4 12.9 0.00 0.00 0.00 64 1020.0
20260904022429 18 231 6.4 12.9 0.00 0.00 0.00 64 1020.0
20260904022329 18 224 6.4 12.9 0.00 0.00 0.00 64 1020.0
20260904022228 18 248 6.4 12.9 0.00 0.00 0.00 63 1020.0
20260904022129 18 243 6.4 12.9 0.00 0.00 0.00 63 1020.0
20260904022029 18 224 6.4 12.9 0.00 0.00 0.00 63 1020.0
20260904022008 18 219 6.4 12.9 0.00 0.00 0.00 63 1020.0
20260904021929 18 242 6.4 12.9 0.00 0.00 0.00 63 1020.0
20260904021828 18 207 6.4 12.9 0.00 0.00 0.00 63 1019.9
20260904021734 18 212 6.4 12.9 0.00 0.00 0.00 63 1020.0
20260904021728 18 255 6.4 12.9 0.00 0.00 0.00 63 1020.0
20260904021723 18 231 6.4 12.9 0.00 0.00 0.00 64 1020.0
20260904021719 18 209 6.4 12.9 0.00 0.00 0.00 63 1020.0
20260904021429 18 268 6.4 12.9 0.00 0.00 0.00 64 1020.0
20260904021329 18 227 6.4 12.9 0.00 0.00 0.00 63 1020.0
20260904021228 18 233 6.4 12.9 0.00 0.00 0.00 63 1020.0
20260904021129 18 238 6.4 12.9 0.00 0.00 0.00 63 1020.0
20260904021028 18 257 6.4 12.9 0.00 0.00 0.00 63 1020.0
20260904021009 18 245 6.4 12.9 0.00 0.00 0.00 63 1019.9
20260904020928 18 248 6.4 12.9 0.00 0.00 0.00 63 1019.9
20260904020829 18 254 6.4 12.9 0.00 0.00 0.00 63 1019.9
20260904020733 18 228 6.4 16.1 0.00 0.00 0.00 63 1019.9
20260904020729 18 284 6.4 16.1 0.00 0.00 0.00 63 1019.9
20260904020725 18 205 6.4 16.1 0.00 0.00 0.00 63 1020.0
20260904020721 18 217 6.4 16.1 0.00 0.00 0.00 63 1020.0
20260904020429 18 240 6.4 16.1 0.00 0.00 0.00 63 1019.9
20260904020329 18 273 6.4 16.1 0.00 0.00 0.00 63 1020.0
20260904020229 18 261 6.4 16.1 0.00 0.00 0.00 63 1020.0
20260904020129 18 248 6.4 16.1 0.00 0.00 0.00 63 1020.0
20260904020029 18 259 6.4 16.1 0.00 0.00 0.00 63 1020.0
20260904020005 18 232 6.4 16.1 0.00 0.00 0.00 63 1020.0
20260904015928 18 244 6.4 16.1 0.00 0.00 0.00 63 1020.0
20260904015828 18 221 6.4 16.1 0.00 0.00 0.00 62 1020.0
20260904015728 18 216 6.4 11.3 0.00 0.00 0.00 62 1019.9
20260904015628 18 238 6.4 11.3 0.00 0.00 0.00 63 1020.0
20260904015528 18 224 4.8 11.3 0.00 0.00 0.00 63 1020.0
20260904015504 18 213 4.8 11.3 0.00 0.00 0.00 63 1020.0
20260904015454 18 210 4.8 14.5 0.00 0.00 0.00 63 1020.0
20260904015449 18 225 4.8 11.3 0.00 0.00 0.00 63 1020.0
20260904015445 18 275 4.8 11.3 0.00 0.00 0.00 63 1020.0
20260904015437 18 227 4.8 11.3 0.00 0.00 0.00 63 1020.0
20260904015220 18 218 6.4 14.5 0.00 0.00 0.00 63 1020.0
20260904015216 18 215 4.8 14.5 0.00 0.00 0.00 63 1020.0
20260904014928 18 204 4.8 14.5 0.00 0.00 0.00 63 1020.0
20260904014829 18 219 4.8 14.5 0.00 0.00 0.00 63 1020.0
20260904014729 18 219 4.8 14.5 0.00 0.00 0.00 64 1020.0
20260904014628 18 224 4.8 14.5 0.00 0.00 0.00 63 1020.1
20260904014528 18 259 6.4 14.5 0.00 0.00 0.00 63 1020.0
20260904014505 18 259 6.4 14.5 0.00 0.00 0.00 64 1020.0
20260904014428 18 258 6.4 14.5 0.00 0.00 0.00 64 1020.0
20260904014328 18 246 6.4 14.5 0.00 0.00 0.00 63 1020.1
20260904014228 18 220 6.4 14.5 0.00 0.00 0.00 64 1020.0
20260904014128 18 217 4.8 11.3 0.00 0.00 0.00 64 1020.1
20260904014028 18 225 4.8 11.3 0.00 0.00 0.00 63 1020.0
20260904014005 18 219 4.8 11.3 0.00 0.00 0.00 63 1020.0
20260904013929 18 225 4.8 11.3 0.00 0.00 0.00 63 1020.0
20260904013829 18 223 4.8 11.3 0.00 0.00 0.00 64 1020.0
20260904013738 18 219 6.4 14.5 0.00 0.00 0.00 64 1020.0
20260904013729 18 241 4.8 11.3 0.00 0.00 0.00 64 1020.0
20260904013721 18 232 4.8 9.7 0.00 0.00 0.00 64 1020.0
20260904013717 18 221 6.4 14.5 0.00 0.00 0.00 64 1020.0
20260904013428 18 219 6.4 14.5 0.00 0.00 0.00 63 1020.0
20260904013328 18 230 6.4 14.5 0.00 0.00 0.00 64 1020.1
20260904013232 18 214 6.4 14.5 0.00 0.00 0.00 64 1020.1
20260904013128 18 232 6.4 14.5 0.00 0.00 0.00 64 1020.1
20260904013005 18 244 6.4 14.5 0.00 0.00 0.00 64 1020.2
20260904012928 18 237 6.4 14.5 0.00 0.00 0.00 64 1020.2
20260904012829 18 244 6.4 14.5 0.00 0.00 0.00 64 1020.1
20260904012729 18 232 6.4 14.5 0.00 0.00 0.00 64 1020.2
20260904012628 18 211 4.8 14.5 0.00 0.00 0.00 64 1020.2
20260904012529 18 220 4.8 11.3 0.00 0.00 0.00 63 1020.2
20260904012504 18 214 4.8 11.3 0.00 0.00 0.00 63 1020.2
20260904012429 18 228 4.8 11.3 0.00 0.00 0.00 64 1020.2
20260904012330 19 205 4.8 11.3 0.00 0.00 0.00 63 1020.1
20260904012231 19 226 4.8 11.3 0.00 0.00 0.00 63 1020.2
20260904012227 19 242 4.8 11.3 0.00 0.00 0.00 63 1020.2
20260904012219 18 213 4.8 11.3 0.00 0.00 0.00 63 1020.1
20260904012216 19 252 4.8 11.3 0.00 0.00 0.00 63 1020.2
20260904011946 19 258 6.4 12.9 0.00 0.00 0.00 63 1020.3
20260904011942 19 228 4.8 11.3 0.00 0.00 0.00 63 1020.3
20260904011938 19 204 4.8 11.3 0.00 0.00 0.00 63 1020.2
20260904011933 19 229 4.8 11.3 0.00 0.00 0.00 63 1020.2
20260904011929 19 227 4.8 11.3 0.00 0.00 0.00 63 1020.2
20260904011921 19 245 4.8 11.3 0.00 0.00 0.00 63 1020.2
20260904011917 19 230 4.8 11.3 0.00 0.00 0.00 63 1020.3
20260904011449 19 225 4.8 11.3 0.00 0.00 0.00 63 1020.3
20260904011445 19 278 4.8 11.3 0.00 0.00 0.00 63 1020.3
20260904011228 19 232 4.8 11.3 0.00 0.00 0.00 63 1020.3
20260904011217 19 230 6.4 12.9 0.00 0.00 0.00 63 1020.3
20260904011213 19 210 6.4 12.9 0.00 0.00 0.00 63 1020.3
20260904010928 19 264 6.4 12.9 0.00 0.00 0.00 63 1020.3
20260904010828 19 247 6.4 12.9 0.00 0.00 0.00 63 1020.3
20260904010729 19 237 6.4 12.9 0.00 0.00 0.00 63 1020.3
20260904010700 19 245 6.4 12.9 0.00 0.00 0.00 63 1020.3
20260904010528 19 236 6.4 12.9 0.00 0.00 0.00 63 1020.4
20260904010502 19 231 6.4 12.9 0.00 0.00 0.00 63 1020.3
20260904010429 19 247 6.4 12.9 0.00 0.00 0.00 63 1020.3
20260904010324 19 240 6.4 12.9 0.00 0.00 0.00 63 1020.3
20260904010224 19 213 6.4 12.9 0.00 0.00 0.00 63 1020.3
20260904010124 19 245 4.8 12.9 0.00 0.00 0.00 63 1020.4
20260904010002 19 248 4.8 11.3 0.00 0.00 0.00 63 1020.3
20260904005923 19 207 4.8 11.3 0.00 0.00 0.00 64 1020.3
20260904005820 19 245 4.8 11.3 0.00 0.00 0.00 63 1020.3
20260904005720 19 234 4.8 11.3 0.00 0.00 0.00 63 1020.3
20260904005618 19 257 4.8 11.3 0.00 0.00 0.00 63 1020.3
20260904005518 19 225 4.8 11.3 0.00 0.00 0.00 63 1020.3
20260904005501 19 248 4.8 12.9 0.00 0.00 0.00 63 1020.3
20260904005415 19 215 4.8 12.9 0.00 0.00 0.00 63 1020.3
20260904005311 19 217 4.8 12.9 0.00 0.00 0.00 63 1020.3
20260904005214 19 235 4.8 12.9 0.00 0.00 0.00 63 1020.3
20260904005110 19 235 4.8 12.9 0.00 0.00 0.00 63 1020.3
20260904005000 19 234 4.8 12.9 0.00 0.00 0.00 63 1020.3
20260904004910 19 246 6.4 12.9 0.00 0.00 0.00 63 1020.3
20260904004806 19 246 6.4 12.9 0.00 0.00 0.00 63 1020.3
20260904004707 19 220 6.4 12.9 0.00 0.00 0.00 63 1020.3
20260904004607 19 241 6.4 12.9 0.00 0.00 0.00 63 1020.3
20260904004507 19 255 6.4 12.9 0.00 0.00 0.00 63 1020.2
20260904004500 19 275 6.4 12.9 0.00 0.00 0.00 63 1020.2
20260904004406 19 261 6.4 12.9 0.00 0.00 0.00 63 1020.2
20260904004306 19 246 6.4 12.9 0.00 0.00 0.00 63 1020.3
20260904004210 19 203 6.4 12.9 0.00 0.00 0.00 63 1020.3
20260904004106 19 229 6.4 14.5 0.00 0.00 0.00 63 1020.3
20260904004001 19 275 6.4 14.5 0.00 0.00 0.00 63 1020.3
20260904003906 19 230 6.4 14.5 0.00 0.00 0.00 63 1020.3
20260904003805 19 229 6.4 14.5 0.00 0.00 0.00 63 1020.3
20260904003708 19 213 6.4 14.5 0.00 0.00 0.00 63 1020.3
20260904003604 19 219 6.4 14.5 0.00 0.00 0.00 63 1020.3
20260904003505 19 204 6.4 14.5 0.00 0.00 0.00 63 1020.3
20260904003501 19 203 6.4 14.5 0.00 0.00 0.00 63 1020.3
20260904003405 19 215 6.4 14.5 0.00 0.00 0.00 63 1020.3
20260904003304 19 213 6.4 14.5 0.00 0.00 0.00 63 1020.3
20260904003206 19 240 6.4 14.5 0.00 0.00 0.00 63 1020.3
20260904003101 19 227 6.4 11.3 0.00 0.00 0.00 63 1020.3
20260904003001 19 301 6.4 12.9 0.00 0.00 0.00 63 1020.3
20260904002901 19 246 6.4 12.9 0.00 0.00 0.00 64 1020.3
20260904002802 19 225 6.4 12.9 0.00 0.00 0.00 64 1020.3
20260904002706 19 236 6.4 12.9 0.00 0.00 0.00 64 1020.3
20260904002601 19 263 4.8 12.9 0.00 0.00 0.00 64 1020.3
20260904002501 19 238 4.8 12.9 0.00 0.00 0.00 64 1020.3
20260904002401 19 210 4.8 12.9 0.00 0.00 0.00 64 1020.3
20260904002301 19 213 4.8 12.9 0.00 0.00 0.00 64 1020.3
20260904002202 19 236 4.8 12.9 0.00 0.00 0.00 64 1020.3
20260904002101 19 246 4.8 12.9 0.00 0.00 0.00 64 1020.3
20260904002001 19 242 4.8 11.3 0.00 0.00 0.00 64 1020.3
20260904001901 19 242 4.8 11.3 0.00 0.00 0.00 64 1020.3
20260904001801 19 230 4.8 11.3 0.00 0.00 0.00 65 1020.3
20260904001724 18 209 6.4 12.9 0.00 0.00 0.00 66 1020.5
20260904001720 19 230 4.8 12.9 0.00 0.00 0.00 65 1020.3
20260904001712 19 221 4.8 12.9 0.00 0.00 0.00 65 1020.3
20260904001704 19 245 4.8 12.9 0.00 0.00 0.00 65 1020.4
20260904001444 19 220 4.8 12.9 0.00 0.00 0.00 65 1020.4
20260904001441 19 213 6.4 12.9 0.00 0.00 0.00 66 1020.4
20260904001225 19 220 6.4 12.9 0.00 0.00 0.00 65 1020.4
20260904001217 19 211 6.4 12.9 0.00 0.00 0.00 66 1020.4
20260904001213 18 209 6.4 12.9 0.00 0.00 0.00 66 1020.5
20260904000859 18 221 6.4 12.9 0.00 0.00 0.00 66 1020.5
20260904000758 18 226 6.4 12.9 0.00 0.00 0.00 66 1020.5
20260904000728 18 246 6.4 12.9 0.00 0.00 0.00 66 1020.6
20260904000722 18 240 6.4 12.9 0.00 0.00 0.00 65 1020.5
20260904000714 18 238 6.4 12.9 0.00 0.00 0.00 66 1020.5
20260904000458 18 246 6.4 12.9 0.00 0.00 0.00 66 1020.6
20260904000352 18 229 6.4 12.9 0.00 0.00 0.00 66 1020.6
20260904000253 18 231 6.4 12.9 0.00 0.00 0.00 66 1020.6
20260904000153 18 238 6.4 12.9 0.00 0.00 0.00 67 1020.6
20260904000052 18 221 6.4 12.9 0.00 0.00 0.00 67 1020.7
20260904000002 18 216 6.4 12.9 0.00 0.00 0.00 67 1020.6
20260903235952 18 215 6.4 12.9 0.00 0.00 0.00 67 1020.6
20260903235846 18 264 6.4 12.9 0.00 0.00 0.00 67 1020.6
20260903235746 18 234 4.8 12.9 0.00 0.00 0.00 67 1020.7
20260903235730 18 214 4.8 8.0 0.00 0.00 0.00 68 1020.7
20260903235720 18 243 4.8 11.3 0.00 0.00 0.00 68 1020.6
20260903235712 18 246 4.8 11.3 0.00 0.00 0.00 68 1020.6
20260903235448 18 217 4.8 8.0 0.00 0.00 0.00 68 1020.7
20260903235444 18 232 3.2 6.4 0.00 0.00 0.00 70 1020.7
20260903235438 18 227 3.2 8.0 0.00 0.00 0.00 68 1020.6
20260903235434 18 246 3.2 8.0 0.00 0.00 0.00 68 1020.6
20260903235217 18 234 3.2 8.0 0.00 0.00 0.00 68 1020.7
20260903235209 18 238 3.2 6.4 0.00 0.00 0.00 68 1020.7
20260903235205 18 229 3.2 6.4 0.00 0.00 0.00 68 1020.7
20260903234943 18 229 3.2 6.4 0.00 0.00 0.00 70 1020.7
20260903234939 18 225 3.2 6.4 0.00 0.00 0.00 69 1020.7
20260903234935 18 238 3.2 6.4 0.00 0.00 0.00 69 1020.7
20260903234720 18 233 3.2 6.4 0.00 0.00 0.00 69 1020.6
20260903234712 18 233 3.2 6.4 0.00 0.00 0.00 70 1020.6
20260903234441 18 232 3.2 6.4 0.00 0.00 0.00 70 1020.7
20260903234336 18 232 1.6 6.4 0.00 0.00 0.00 70 1020.7
20260903234236 18 290 1.6 6.4 0.00 0.00 0.00 70 1020.7
20260903234230 18 294 1.6 4.8 0.00 0.00 0.00 71 1020.7
20260903234221 18 290 1.6 6.4 0.00 0.00 0.00 71 1020.7
20260903234213 18 290 1.6 4.8 0.00 0.00 0.00 70 1020.7
20260903233949 18 294 0.0 3.2 0.00 0.00 0.00 71 1020.7
20260903233945 18 294 1.6 3.2 0.00 0.00 0.00 71 1020.7
20260903233941 18 294 1.6 3.2 0.00 0.00 0.00 71 1020.7
20260903233937 18 294 1.6 3.2 0.00 0.00 0.00 72 1020.7
20260903233720 18 294 0.0 3.2 0.00 0.00 0.00 72 1020.7
20260903233712 18 294 0.0 3.2 0.00 0.00 0.00 71 1020.7
20260903233430 18 294 0.0 3.2 0.00 0.00 0.00 71 1020.7
20260903233330 18 294 0.0 3.2 0.00 0.00 0.00 71 1020.7
20260903233230 18 294 0.0 3.2 0.00 0.00 0.00 71 1020.7
20260903233133 18 294 0.0 0.0 0.00 0.00 0.00 71 1020.7
20260903233029 18 294 0.0 0.0 0.00 0.00 0.00 72 1020.7
20260903233001 18 294 0.0 1.6 0.00 0.00 0.00 72 1020.7
20260903232930 18 294 0.0 1.6 0.00 0.00 0.00 72 1020.7
20260903232830 18 294 0.0 1.6 0.00 0.00 0.00 72 1020.7
20260903232729 18 294 0.0 1.6 0.00 0.00 0.00 71 1020.8
20260903232632 18 294 0.0 1.6 0.00 0.00 0.00 71 1020.7
20260903232502 18 294 0.0 1.6 0.00 0.00 0.00 71 1020.8
20260903232429 18 294 0.0 1.6 0.00 0.00 0.00 71 1020.8
20260903232328 18 294 0.0 3.2 0.00 0.00 0.00 72 1020.7
20260903232225 18 294 0.0 3.2 0.00 0.00 0.00 72 1020.7
20260903232121 18 294 0.0 3.2 0.00 0.00 0.00 72 1020.7
20260903232001 18 294 0.0 3.2 0.00 0.00 0.00 72 1020.7
20260903231920 18 294 0.0 3.2 0.00 0.00 0.00 72 1020.8
20260903231820 18 294 0.0 3.2 0.00 0.00 0.00 72 1020.8
20260903231720 18 294 0.0 3.2 0.00 0.00 0.00 72 1020.8
20260903231616 18 294 0.0 3.2 0.00 0.00 0.00 72 1020.8
20260903231500 18 294 0.0 3.2 0.00 0.00 0.00 71 1020.7
20260903231416 18 294 0.0 3.2 0.00 0.00 0.00 71 1020.7
20260903231317 18 294 0.0 3.2 0.00 0.00 0.00 71 1020.7
20260903231213 18 294 0.0 3.2 0.00 0.00 0.00 71 1020.8
20260903231112 18 294 0.0 3.2 0.00 0.00 0.00 72 1020.8
20260903231001 18 294 0.0 3.2 0.00 0.00 0.00 71 1020.8
20260903230912 18 294 0.0 3.2 0.00 0.00 0.00 72 1020.8
20260903230810 18 294 0.0 3.2 0.00 0.00 0.00 72 1020.8
20260903230708 18 294 0.0 3.2 0.00 0.00 0.00 72 1020.8
20260903230604 18 294 0.0 3.2 0.00 0.00 0.00 70 1020.8
20260903230503 18 294 1.6 3.2 0.00 0.00 0.00 71 1020.8
20260903230402 18 294 1.6 3.2 0.00 0.00 0.00 72 1020.9
20260903230302 18 294 1.6 3.2 0.00 0.00 0.00 72 1020.8
20260903230201 18 294 1.6 3.2 0.00 0.00 0.00 72 1020.8
20260903230001 18 294 1.6 3.2 0.00 0.00 0.00 71 1020.8
20260903225901 18 294 0.0 3.2 0.00 0.00 0.00 71 1020.8
20260903225801 18 294 0.0 3.2 0.00 0.00 0.00 71 1020.8
20260903225701 18 294 0.0 3.2 0.00 0.00 0.00 71 1020.8
20260903225601 18 294 0.0 3.2 0.00 0.00 0.00 71 1020.9
20260903225501 18 294 0.0 3.2 0.00 0.00 0.00 71 1020.8
20260903225401 18 294 0.0 3.2 0.00 0.00 0.00 71 1020.8
20260903225301 18 294 0.0 3.2 0.00 0.00 0.00 71 1020.8
20260903225201 18 294 0.0 3.2 0.00 0.00 0.00 71 1020.9
20260903225101 18 294 0.0 3.2 0.00 0.00 0.00 71 1020.8
20260903225001 18 294 0.0 3.2 0.00 0.00 0.00 71 1020.9
20260903224900 18 294 0.0 3.2 0.00 0.00 0.00 71 1020.9
20260903224801 18 294 0.0 3.2 0.00 0.00 0.00 72 1020.9
20260903224701 18 294 0.0 3.2 0.00 0.00 0.00 72 1020.9
20260903224600 18 294 0.0 3.2 0.00 0.00 0.00 72 1020.9
20260903224500 18 294 0.0 1.6 0.00 0.00 0.00 72 1020.9
20260903224401 18 294 0.0 1.6 0.00 0.00 0.00 72 1020.9
20260903224301 18 294 0.0 1.6 0.00 0.00 0.00 72 1020.9
20260903224201 18 294 0.0 1.6 0.00 0.00 0.00 71 1020.9
20260903224101 18 294 0.0 1.6 0.00 0.00 0.00 71 1020.9
20260903224001 18 294 0.0 1.6 0.00 0.00 0.00 71 1020.8
20260903223901 18 294 0.0 1.6 0.00 0.00 0.00 71 1020.9
20260903223801 18 294 0.0 1.6 0.00 0.00 0.00 72 1020.8
20260903223701 18 294 0.0 1.6 0.00 0.00 0.00 72 1020.9
20260903223601 18 294 0.0 1.6 0.00 0.00 0.00 72 1020.8
20260903223501 18 294 0.0 1.6 0.00 0.00 0.00 72 1020.8
20260903223400 18 294 0.0 1.6 0.00 0.00 0.00 71 1020.8
20260903223300 18 294 0.0 0.0 0.00 0.00 0.00 71 1020.8
20260903223201 18 294 0.0 0.0 0.00 0.00 0.00 71 1020.9
20260903223101 18 294 0.0 0.0 0.00 0.00 0.00 71 1020.9
20260903223002 18 294 0.0 0.0 0.00 0.00 0.00 71 1020.9
20260903222900 18 294 0.0 0.0 0.00 0.00 0.00 71 1020.9
20260903222757 18 294 0.0 0.0 0.00 0.00 0.00 71 1020.9
20260903222654 18 294 0.0 0.0 0.00 0.00 0.00 71 1020.9
20260903222553 18 294 0.0 0.0 0.00 0.00 0.00 71 1020.9
20260903222500 18 294 0.0 0.0 0.00 0.00 0.00 71 1020.8
20260903222455 18 294 0.0 0.0 0.00 0.00 0.00 71 1020.8
20260903222450 18 294 0.0 0.0 0.00 0.00 0.00 71 1020.8
20260903222442 18 294 0.0 0.0 0.00 0.00 0.00 71 1020.9
20260903222438 18 294 0.0 0.0 0.00 0.00 0.00 72 1020.8
20260903222220 18 294 0.0 0.0 0.00 0.00 0.00 71 1020.8
20260903222212 18 294 0.0 0.0 0.00 0.00 0.00 71 1020.8
20260903221951 18 294 0.0 0.0 0.00 0.00 0.00 71 1020.8
20260903221848 18 294 0.0 0.0 0.00 0.00 0.00 71 1020.9
20260903221746 18 294 0.0 0.0 0.00 0.00 0.00 71 1020.9
20260903221647 18 294 0.0 0.0 0.00 0.00 0.00 71 1020.8
20260903221545 18 294 0.0 0.0 0.00 0.00 0.00 71 1020.9
20260903221501 18 294 0.0 0.0 0.00 0.00 0.00 71 1020.9
20260903221445 18 294 0.0 0.0 0.00 0.00 0.00 71 1020.9
20260903221343 18 294 0.0 1.6 0.00 0.00 0.00 71 1020.9
20260903221241 18 294 0.0 1.6 0.00 0.00 0.00 71 1020.9
20260903221135 18 294 0.0 1.6 0.00 0.00 0.00 71 1021.0
20260903221035 18 294 0.0 1.6 0.00 0.00 0.00 71 1021.0
20260903221000 18 294 0.0 1.6 0.00 0.00 0.00 71 1021.0
20260903220935 18 294 0.0 1.6 0.00 0.00 0.00 71 1021.0
20260903220835 18 294 0.0 1.6 0.00 0.00 0.00 71 1021.0
20260903220734 18 294 0.0 3.2 0.00 0.00 0.00 71 1021.1
20260903220635 18 294 1.6 4.8 0.00 0.00 0.00 71 1021.1
20260903220533 18 294 1.6 6.4 0.00 0.00 0.00 71 1021.1
20260903220500 18 294 1.6 6.4 0.00 0.00 0.00 71 1021.1
20260903220434 18 294 1.6 6.4 0.00 0.00 0.00 70 1021.1
20260903220329 18 294 1.6 6.4 0.00 0.00 0.00 70 1021.1
20260903220229 18 294 1.6 6.4 0.00 0.00 0.00 70 1021.0
20260903220220 18 294 1.6 6.4 0.00 0.00 0.00 70 1021.0
20260903220212 18 294 1.6 6.4 0.00 0.00 0.00 70 1021.1
20260903215929 18 294 1.6 6.4 0.00 0.00 0.00 70 1021.1
20260903215829 18 294 1.6 6.4 0.00 0.00 0.00 70 1021.1
20260903215729 18 294 1.6 6.4 0.00 0.00 0.00 70 1021.1
20260903215630 18 294 1.6 6.4 0.00 0.00 0.00 70 1021.1
20260903215529 18 273 1.6 4.8 0.00 0.00 0.00 70 1021.1
20260903215501 18 267 0.0 4.8 0.00 0.00 0.00 70 1021.1
20260903215428 18 266 0.0 4.8 0.00 0.00 0.00 70 1021.1
20260903215328 18 296 0.0 4.8 0.00 0.00 0.00 70 1021.1
20260903215229 18 296 0.0 4.8 0.00 0.00 0.00 70 1021.1
20260903215129 18 296 0.0 0.0 0.00 0.00 0.00 71 1021.1
20260903215001 18 296 0.0 0.0 0.00 0.00 0.00 71 1021.0
20260903214929 18 296 0.0 0.0 0.00 0.00 0.00 71 1021.0
20260903214829 18 296 0.0 0.0 0.00 0.00 0.00 71 1021.1
20260903214730 18 296 0.0 0.0 0.00 0.00 0.00 70 1021.0
20260903214719 18 296 0.0 0.0 0.00 0.00 0.00 70 1021.0
20260903214715 18 296 0.0 0.0 0.00 0.00 0.00 70 1020.9
20260903214429 18 296 0.0 0.0 0.00 0.00 0.00 70 1020.9
20260903214329 18 296 0.0 0.0 0.00 0.00 0.00 70 1021.0
20260903214229 18 296 0.0 0.0 0.00 0.00 0.00 70 1020.9
20260903214129 18 296 0.0 1.6 0.00 0.00 0.00 70 1020.9
20260903214000 18 296 0.0 1.6 0.00 0.00 0.00 70 1020.9
20260903213929 18 296 0.0 1.6 0.00 0.00 0.00 70 1020.9
20260903213829 18 296 0.0 3.2 0.00 0.00 0.00 70 1020.9
20260903213729 18 296 0.0 3.2 0.00 0.00 0.00 70 1020.9
20260903213629 18 296 0.0 3.2 0.00 0.00 0.00 70 1020.9
20260903213528 18 296 0.0 3.2 0.00 0.00 0.00 70 1020.8
20260903213500 18 296 0.0 3.2 0.00 0.00 0.00 70 1020.9
20260903213428 18 296 0.0 3.2 0.00 0.00 0.00 70 1020.9
20260903213329 18 296 0.0 3.2 0.00 0.00 0.00 70 1020.9
20260903213229 18 296 0.0 3.2 0.00 0.00 0.00 70 1020.9
20260903213129 18 296 0.0 3.2 0.00 0.00 0.00 71 1020.9
20260903213002 18 296 1.6 3.2 0.00 0.00 0.00 71 1020.9
20260903212929 18 296 1.6 3.2 0.00 0.00 0.00 70 1020.9
20260903212828 18 296 0.0 3.2 0.00 0.00 0.00 70 1020.9
20260903212729 18 296 0.0 3.2 0.00 0.00 0.00 70 1020.9
20260903212629 18 296 0.0 3.2 0.00 0.00 0.00 71 1020.9
20260903212501 18 296 0.0 3.2 0.00 0.00 0.00 71 1020.9
20260903212429 18 296 0.0 3.2 0.00 0.00 0.00 71 1020.9
20260903212329 18 296 0.0 3.2 0.00 0.00 0.00 71 1020.9
20260903212229 18 296 0.0 3.2 0.00 0.00 0.00 71 1020.9
20260903212129 18 296 0.0 3.2 0.00 0.00 0.00 72 1020.9
20260903212029 18 296 0.0 1.6 0.00 0.00 0.00 72 1020.9
20260903211929 18 296 0.0 1.6 0.00 0.00 0.00 71 1020.8
20260903211829 18 296 0.0 3.2 0.00 0.00 0.00 71 1020.8
20260903211729 18 296 0.0 3.2 0.00 0.00 0.00 72 1020.8
20260903211629 18 296 1.6 6.4 0.00 0.00 0.00 72 1020.8
20260903211528 18 296 1.6 6.4 0.00 0.00 0.00 71 1020.8
20260903211428 18 296 1.6 6.4 0.00 0.00 0.00 71 1020.9
20260903211328 18 296 1.6 6.4 0.00 0.00 0.00 71 1020.8
20260903211228 18 296 1.6 6.4 0.00 0.00 0.00 71 1020.8
20260903211128 18 296 3.2 6.4 0.00 0.00 0.00 71 1020.8
20260903211029 18 296 3.2 6.4 0.00 0.00 0.00 71 1020.8
20260903210928 18 296 3.2 6.4 0.00 0.00 0.00 71 1020.8
20260903210828 18 296 3.2 6.4 0.00 0.00 0.00 71 1020.7
20260903210729 18 296 3.2 6.4 0.00 0.00 0.00 71 1020.8
20260903210629 18 296 3.2 6.4 0.00 0.00 0.00 71 1020.7
20260903210529 18 238 3.2 4.8 0.00 0.00 0.00 71 1020.7
20260903210429 18 223 3.2 4.8 0.00 0.00 0.00 71 1020.6
20260903210329 18 223 3.2 4.8 0.00 0.00 0.00 71 1020.7
20260903210229 18 223 1.6 4.8 0.00 0.00 0.00 71 1020.7
20260903210128 17 223 1.6 4.8 0.00 0.00 0.00 71 1020.6
20260903210029 17 223 1.6 4.8 0.00 0.00 0.00 71 1020.7
20260903205929 17 223 1.6 3.2 0.00 0.00 0.00 71 1020.6
20260903205829 17 223 1.6 4.8 0.00 0.00 0.00 71 1020.6
20260903205729 17 223 1.6 4.8 0.00 0.00 0.00 71 1020.6
20260903205629 18 223 1.6 4.8 0.00 0.00 0.00 71 1020.6
20260903205529 18 223 1.6 4.8 0.00 0.00 0.00 71 1020.6
20260903205428 18 223 1.6 4.8 0.00 0.00 0.00 71 1020.6
20260903205329 17 223 1.6 4.8 0.00 0.00 0.00 71 1020.6
20260903205229 17 223 1.6 4.8 0.00 0.00 0.00 70 1020.6
20260903205129 17 223 1.6 4.8 0.00 0.00 0.00 70 1020.6
20260903205029 17 223 1.6 4.8 0.00 0.00 0.00 70 1020.6
20260903204929 17 223 1.6 4.8 0.00 0.00 0.00 70 1020.7
20260903204829 17 223 1.6 4.8 0.00 0.00 0.00 70 1020.6
20260903204729 17 223 1.6 4.8 0.00 0.00 0.00 69 1020.6
20260903204629 17 222 1.6 4.8 0.00 0.00 0.00 69 1020.7
20260903204529 17 223 0.0 3.2 0.00 0.00 0.00 69 1020.7
20260903204428 17 223 0.0 3.2 0.00 0.00 0.00 69 1020.7
20260903204329 17 223 0.0 3.2 0.00 0.00 0.00 70 1020.7
20260903204229 17 222 0.0 1.6 0.00 0.00 0.00 70 1020.8
20260903204129 18 223 0.0 1.6 0.00 0.00 0.00 71 1020.9
20260903204029 18 223 0.0 1.6 0.00 0.00 0.00 70 1020.9
20260903203929 18 223 0.0 1.6 0.00 0.00 0.00 69 1020.9
20260903203829 18 223 0.0 1.6 0.00 0.00 0.00 68 1021.0
20260903203729 18 223 0.0 1.6 0.00 0.00 0.00 69 1020.9
20260903203622 18 223 0.0 1.6 0.00 0.00 0.00 69 1021.0
20260903203523 18 223 0.0 1.6 0.00 0.00 0.00 70 1020.9
20260903203422 18 223 0.0 1.6 0.00 0.00 0.00 70 1020.9
20260903203323 18 223 0.0 1.6 0.00 0.00 0.00 70 1020.9
20260903203223 18 223 0.0 1.6 0.00 0.00 0.00 70 1020.9
20260903203123 18 223 0.0 1.6 0.00 0.00 0.00 70 1020.9
20260903203021 18 223 0.0 1.6 0.00 0.00 0.00 70 1021.0
20260903202921 18 223 0.0 1.6 0.00 0.00 0.00 70 1021.0
20260903202821 18 223 0.0 1.6 0.00 0.00 0.00 70 1020.9
20260903202800 18 223 1.6 3.2 0.00 0.00 0.00 68 1021.0
20260903202757 18 223 0.0 1.6 0.00 0.00 0.00 69 1021.0
20260903202752 18 223 0.0 3.2 0.00 0.00 0.00 68 1021.0
20260903202748 18 223 1.6 3.2 0.00 0.00 0.00 68 1021.0
20260903202418 18 223 1.6 3.2 0.00 0.00 0.00 68 1021.0
20260903202317 18 223 1.6 3.2 0.00 0.00 0.00 69 1021.0
20260903202216 18 223 1.6 3.2 0.00 0.00 0.00 69 1021.0
20260903202117 18 223 1.6 3.2 0.00 0.00 0.00 68 1021.1
20260903202017 18 223 1.6 3.2 0.00 0.00 0.00 68 1021.1
20260903201917 18 223 1.6 3.2 0.00 0.00 0.00 68 1021.1
20260903201815 18 223 1.6 3.2 0.00 0.00 0.00 67 1021.1
20260903201713 18 223 1.6 3.2 0.00 0.00 0.00 67 1021.2
20260903201653 18 223 1.6 3.2 0.00 0.00 0.00 67 1021.1
20260903201648 18 223 1.6 3.2 0.00 0.00 0.00 67 1021.2
20260903201644 18 223 1.6 3.2 0.00 0.00 0.00 67 1021.1
20260903201411 18 223 1.6 3.2 0.00 0.00 0.00 67 1021.1
20260903201309 18 223 1.6 3.2 0.00 0.00 0.00 67 1021.1
20260903201209 18 223 1.6 3.2 0.00 0.00 0.00 67 1021.1
20260903201107 18 223 1.6 3.2 0.00 0.00 0.00 68 1021.1
20260903201005 18 223 1.6 3.2 0.00 0.00 0.00 68 1021.0
20260903200903 18 223 1.6 3.2 0.00 0.00 0.00 68 1021.0
20260903200803 18 223 1.6 3.2 0.00 0.00 0.00 68 1021.0
20260903200702 18 223 0.0 3.2 0.00 0.00 0.00 68 1021.0
20260903200602 18 223 0.0 3.2 0.00 0.00 0.00 69 1021.0
20260903200501 18 223 0.0 3.2 0.00 0.00 0.00 68 1020.9
20260903200402 18 223 0.0 3.2 0.00 0.00 0.00 68 1020.9
20260903200301 18 223 0.0 3.2 0.00 0.00 0.00 68 1020.8
20260903200201 18 223 0.0 1.6 0.00 0.00 0.00 68 1020.8
20260903200001 18 223 0.0 1.6 0.00 0.00 0.00 68 1020.8
20260903195928 18 223 0.0 1.6 0.00 0.00 0.00 68 1020.8
20260903195901 18 223 0.0 1.6 0.00 0.00 0.00 69 1020.8
20260903195801 18 223 0.0 1.6 0.00 0.00 0.00 69 1020.8
20260903195701 18 223 0.0 1.6 0.00 0.00 0.00 69 1020.8
20260903195600 18 223 0.0 1.6 0.00 0.00 0.00 67 1020.7
20260903195500 18 223 0.0 1.6 0.00 0.00 0.00 67 1020.7
20260903195417 18 223 0.0 3.2 0.00 0.00 0.00 67 1020.6
20260903195413 18 223 0.0 1.6 0.00 0.00 0.00 67 1020.7
20260903195409 18 223 0.0 1.6 0.00 0.00 0.00 67 1020.7
20260903195405 18 223 0.0 1.6 0.00 0.00 0.00 68 1020.7
20260903195401 18 223 0.0 1.6 0.00 0.00 0.00 68 1020.7
20260903195356 18 223 0.0 1.6 0.00 0.00 0.00 68 1020.7
20260903195352 18 223 0.0 1.6 0.00 0.00 0.00 67 1020.7
20260903195346 18 223 0.0 1.6 0.00 0.00 0.00 67 1020.7
20260903194911 18 223 0.0 1.6 0.00 0.00 0.00 67 1020.7
20260903194907 18 223 0.0 1.6 0.00 0.00 0.00 68 1020.7
20260903194903 18 223 0.0 1.6 0.00 0.00 0.00 67 1020.7
20260903194647 18 223 0.0 1.6 0.00 0.00 0.00 67 1020.6
20260903194644 18 223 0.0 1.6 0.00 0.00 0.00 67 1020.6
20260903194401 18 223 0.0 3.2 0.00 0.00 0.00 67 1020.6
20260903194300 18 223 1.6 3.2 0.00 0.00 0.00 67 1020.6
20260903194200 18 223 1.6 3.2 0.00 0.00 0.00 67 1020.6
20260903194100 18 223 1.6 3.2 0.00 0.00 0.00 66 1020.6
20260903194000 18 223 1.6 3.2 0.00 0.00 0.00 66 1020.6
20260903193901 18 223 1.6 3.2 0.00 0.00 0.00 66 1020.6
20260903193801 19 223 1.6 3.2 0.00 0.00 0.00 66 1020.7
20260903193701 19 223 1.6 3.2 0.00 0.00 0.00 66 1020.7
20260903193601 19 223 1.6 3.2 0.00 0.00 0.00 66 1020.7
20260903193500 19 223 1.6 3.2 0.00 0.00 0.00 66 1020.7
20260903193429 19 223 1.6 4.8 0.00 0.00 0.00 66 1020.7
20260903193402 19 223 1.6 4.8 0.00 0.00 0.00 66 1020.6
20260903193300 19 223 1.6 4.8 0.00 0.00 0.00 66 1020.6
20260903193200 19 223 1.6 4.8 0.00 0.00 0.00 66 1020.6
20260903193100 19 223 1.6 4.8 0.00 0.00 0.00 65 1020.6
20260903193001 19 223 1.6 4.8 0.00 0.00 0.00 66 1020.6
20260903192932 19 223 3.2 4.8 0.00 0.00 0.00 66 1020.6
20260903192901 19 223 3.2 4.8 0.00 0.00 0.00 65 1020.6
20260903192801 19 223 3.2 4.8 0.00 0.00 0.00 65 1020.5
20260903192701 19 223 3.2 4.8 0.00 0.00 0.00 65 1020.5
20260903192601 19 223 3.2 4.8 0.00 0.00 0.00 65 1020.5
20260903192501 19 223 3.2 4.8 0.00 0.00 0.00 65 1020.5
20260903192400 19 223 3.2 4.8 0.00 0.00 0.00 65 1020.5
20260903192300 19 223 3.2 4.8 0.00 0.00 0.00 65 1020.5
20260903192201 19 223 3.2 4.8 0.00 0.00 0.00 65 1020.5
20260903192101 19 222 3.2 4.8 0.00 0.00 0.00 65 1020.5
20260903192001 19 222 3.2 4.8 0.00 0.00 0.00 64 1020.4
20260903191900 19 222 3.2 4.8 0.00 0.00 0.00 64 1020.4
20260903191800 19 222 1.6 4.8 0.00 0.00 0.00 64 1020.4
20260903191701 19 222 3.2 4.8 0.00 0.00 0.00 64 1020.4
20260903191601 19 222 3.2 4.8 0.00 0.00 0.00 64 1020.4
20260903191501 19 222 1.6 4.8 0.00 0.00 0.00 64 1020.4
20260903191425 19 222 1.6 4.8 0.00 0.00 0.00 64 1020.4
20260903191401 20 222 1.6 4.8 0.00 0.00 0.00 64 1020.4
20260903191301 20 222 1.6 4.8 0.00 0.00 0.00 64 1020.3
20260903191201 20 222 1.6 4.8 0.00 0.00 0.00 64 1020.3
20260903191101 20 222 1.6 4.8 0.00 0.00 0.00 64 1020.4
20260903191001 20 222 1.6 4.8 0.00 0.00 0.00 64 1020.3
20260903190925 20 222 1.6 4.8 0.00 0.00 0.00 64 1020.3
20260903190919 20 222 1.6 4.8 0.00 0.00 0.00 63 1020.3
20260903190911 20 222 1.6 4.8 0.00 0.00 0.00 64 1020.4
20260903190904 20 222 1.6 4.8 0.00 0.00 0.00 64 1020.4
20260903190859 20 222 1.6 4.8 0.00 0.00 0.00 64 1020.3
20260903190639 20 222 1.6 4.8 0.00 0.00 0.00 64 1020.3
20260903190635 20 222 1.6 4.8 0.00 0.00 0.00 64 1020.3
20260903190400 20 222 1.6 4.8 0.00 0.00 0.00 63 1020.3
20260903190303 20 222 1.6 4.8 0.00 0.00 0.00 63 1020.3
20260903190201 20 222 3.2 4.8 0.00 0.00 0.00 63 1020.3
20260903190147 20 221 3.2 6.4 0.00 0.00 0.00 63 1020.3
20260903190140 20 221 3.2 4.8 0.00 0.00 0.00 63 1020.3
20260903190136 20 221 3.2 6.4 0.00 0.00 0.00 63 1020.3
20260903185901 20 221 3.2 6.4 0.00 0.00 0.00 63 1020.3
20260903185801 20 221 3.2 6.4 0.00 0.00 0.00 63 1020.3
20260903185701 20 221 3.2 6.4 0.00 0.00 0.00 63 1020.3
20260903185600 20 221 3.2 6.4 0.00 0.00 0.00 63 1020.3
20260903185501 20 221 3.2 8.0 0.00 0.00 0.00 63 1020.3
20260903185422 20 221 3.2 8.0 0.00 0.00 0.00 63 1020.2
20260903185401 20 221 3.2 8.0 0.00 0.00 0.00 62 1020.2
20260903185301 20 221 3.2 8.0 0.00 0.00 0.00 63 1020.3
20260903185201 20 221 3.2 8.0 0.00 0.00 0.00 63 1020.3
20260903185100 20 221 3.2 8.0 0.00 0.00 0.00 63 1020.3
20260903185001 20 225 4.8 8.0 0.00 0.00 0.00 63 1020.2
20260903184922 20 227 4.8 8.0 0.00 0.00 0.00 62 1020.2
20260903184901 20 227 4.8 8.0 0.00 0.00 0.00 63 1020.2
20260903184801 20 229 4.8 8.0 0.00 0.00 0.00 62 1020.2
20260903184700 20 253 4.8 8.0 0.00 0.00 0.00 62 1020.2
20260903184600 20 221 4.8 8.0 0.00 0.00 0.00 62 1020.2
20260903184501 20 220 4.8 8.0 0.00 0.00 0.00 63 1020.2
20260903184422 20 220 4.8 8.0 0.00 0.00 0.00 62 1020.1
20260903184401 20 220 3.2 8.0 0.00 0.00 0.00 62 1020.1
20260903184300 20 214 3.2 8.0 0.00 0.00 0.00 62 1020.2
20260903184201 20 214 3.2 8.0 0.00 0.00 0.00 62 1020.1
20260903184101 20 213 3.2 8.0 0.00 0.00 0.00 62 1020.2
20260903184001 20 229 3.2 8.0 0.00 0.00 0.00 61 1020.2
20260903183901 20 236 3.2 8.0 0.00 0.00 0.00 61 1020.1
20260903183801 20 209 3.2 6.4 0.00 0.00 0.00 61 1020.1
20260903183700 20 250 3.2 6.4 0.00 0.00 0.00 61 1020.2
20260903183601 20 249 3.2 4.8 0.00 0.00 0.00 61 1020.2
20260903183500 20 259 3.2 4.8 0.00 0.00 0.00 61 1020.1
20260903183420 20 259 3.2 6.4 0.00 0.00 0.00 61 1020.2
20260903183400 20 260 3.2 9.7 0.00 0.00 0.00 61 1020.2
20260903183300 20 259 3.2 9.7 0.00 0.00 0.00 61 1020.1
20260903183200 20 260 3.2 9.7 0.00 0.00 0.00 61 1020.2
20260903183100 20 259 3.2 9.7 0.00 0.00 0.00 61 1020.1
20260903183000 20 259 4.8 9.7 0.00 0.00 0.00 61 1020.1
20260903182901 20 259 4.8 9.7 0.00 0.00 0.00 60 1020.1
20260903182802 20 259 4.8 9.7 0.00 0.00 0.00 60 1020.1
20260903182701 21 259 4.8 9.7 0.00 0.00 0.00 60 1020.1
20260903182601 21 259 4.8 9.7 0.00 0.00 0.00 60 1020.1
20260903182500 21 260 4.8 9.7 0.00 0.00 0.00 60 1020.1
20260903182400 21 267 4.8 9.7 0.00 0.00 0.00 60 1020.1
20260903182300 21 268 4.8 9.7 0.00 0.00 0.00 60 1020.1
20260903182201 21 267 4.8 9.7 0.00 0.00 0.00 59 1020.1
20260903182101 21 270 4.8 9.7 0.00 0.00 0.00 59 1020.0
20260903182000 21 270 4.8 9.7 0.00 0.00 0.00 59 1020.0
20260903181916 21 280 4.8 9.7 0.00 0.00 0.00 59 1020.1
20260903181901 21 285 4.8 9.7 0.00 0.00 0.00 59 1020.1
20260903181800 21 225 4.8 9.7 0.00 0.00 0.00 59 1020.0
20260903181704 21 259 4.8 9.7 0.00 0.00 0.00 59 1020.0
20260903181601 21 257 4.8 9.7 0.00 0.00 0.00 59 1020.0
20260903181501 21 257 4.8 9.7 0.00 0.00 0.00 59 1019.9
20260903181417 21 261 3.2 9.7 0.00 0.00 0.00 59 1019.9
20260903181401 21 266 3.2 9.7 0.00 0.00 0.00 59 1019.9
20260903181301 21 268 3.2 9.7 0.00 0.00 0.00 59 1019.9
20260903181201 21 247 3.2 8.0 0.00 0.00 0.00 58 1020.0
20260903181100 21 247 3.2 8.0 0.00 0.00 0.00 58 1020.0
20260903181000 21 248 3.2 8.0 0.00 0.00 0.00 58 1019.9
20260903180916 21 248 3.2 8.0 0.00 0.00 0.00 59 1020.0
20260903180900 21 247 3.2 8.0 0.00 0.00 0.00 59 1020.0
20260903180801 21 237 3.2 9.7 0.00 0.00 0.00 58 1019.9
20260903180701 21 236 3.2 9.7 0.00 0.00 0.00 58 1019.9
20260903180600 21 234 3.2 9.7 0.00 0.00 0.00 58 1019.9
20260903180500 21 234 3.2 9.7 0.00 0.00 0.00 58 1019.9
20260903180401 21 233 4.8 9.7 0.00 0.00 0.00 57 1019.9
20260903180300 21 233 4.8 9.7 0.00 0.00 0.00 58 1019.9
20260903180200 21 232 4.8 9.7 0.00 0.00 0.00 57 1019.9
20260903180100 21 233 4.8 9.7 0.00 0.00 0.00 57 1019.8
20260903180001 21 269 4.8 9.7 0.00 0.00 0.00 57 1019.9
20260903175901 21 269 4.8 9.7 0.00 0.00 0.00 57 1019.9
20260903175801 21 245 4.8 8.0 0.00 0.00 0.00 57 1019.8
20260903175701 21 261 4.8 8.0 0.00 0.00 0.00 57 1019.8
20260903175600 21 261 4.8 8.0 0.00 0.00 0.00 57 1019.8
20260903175501 21 261 4.8 8.0 0.00 0.00 0.00 57 1019.8
20260903175417 21 261 4.8 8.0 0.00 0.00 0.00 57 1019.7
20260903175400 21 260 4.8 8.0 0.00 0.00 0.00 57 1019.7
20260903175300 21 264 4.8 8.0 0.00 0.00 0.00 56 1019.8
20260903175200 21 261 4.8 8.0 0.00 0.00 0.00 56 1019.8
20260903175100 21 233 4.8 8.0 0.00 0.00 0.00 56 1019.8
20260903174956 21 232 4.8 8.0 0.00 0.00 0.00 57 1019.8
20260903174916 21 236 4.8 8.0 0.00 0.00 0.00 56 1019.8
20260903174856 21 236 4.8 8.0 0.00 0.00 0.00 56 1019.8
20260903174757 21 234 3.2 8.0 0.00 0.00 0.00 56 1019.7
20260903174657 21 260 4.8 8.0 0.00 0.00 0.00 56 1019.7
20260903174558 22 246 4.8 11.3 0.00 0.00 0.00 56 1019.7
20260903174457 22 246 4.8 11.3 0.00 0.00 0.00 56 1019.7
20260903174413 22 245 3.2 11.3 0.00 0.00 0.00 56 1019.7
20260903174357 22 245 3.2 11.3 0.00 0.00 0.00 56 1019.7
20260903174257 22 244 3.2 11.3 0.00 0.00 0.00 55 1019.7
20260903174157 22 244 3.2 11.3 0.00 0.00 0.00 55 1019.7
20260903174056 22 244 3.2 11.3 0.00 0.00 0.00 55 1019.7
20260903173956 22 242 3.2 11.3 0.00 0.00 0.00 55 1019.7
20260903173912 22 218 3.2 11.3 0.00 0.00 0.00 55 1019.7
20260903173856 22 218 3.2 11.3 0.00 0.00 0.00 55 1019.7
20260903173756 22 218 3.2 11.3 0.00 0.00 0.00 55 1019.7
20260903173714 22 217 3.2 11.3 0.00 0.00 0.00 55 1019.7
20260903173709 22 214 3.2 8.0 0.00 0.00 0.00 55 1019.7
20260903173458 22 231 3.2 8.0 0.00 0.00 0.00 55 1019.5
20260903173413 22 232 3.2 8.0 0.00 0.00 0.00 55 1019.5
20260903173356 22 231 3.2 8.0 0.00 0.00 0.00 55 1019.5
20260903173257 22 232 3.2 8.0 0.00 0.00 0.00 55 1019.7
20260903173157 22 228 3.2 6.4 0.00 0.00 0.00 55 1019.5
20260903173050 22 228 3.2 6.4 0.00 0.00 0.00 55 1019.7
20260903172950 22 228 3.2 6.4 0.00 0.00 0.00 55 1019.7
20260903172911 22 228 3.2 6.4 0.00 0.00 0.00 55 1019.7
20260903172852 22 228 3.2 6.4 0.00 0.00 0.00 55 1019.7
20260903172750 22 229 3.2 8.0 0.00 0.00 0.00 55 1019.5
20260903172650 22 221 4.8 8.0 0.00 0.00 0.00 55 1019.7
20260903172551 22 221 4.8 8.0 0.00 0.00 0.00 54 1019.7
20260903172451 22 221 4.8 8.0 0.00 0.00 0.00 54 1019.5
20260903172409 22 221 4.8 8.0 0.00 0.00 0.00 54 1019.5
20260903172348 22 221 4.8 8.0 0.00 0.00 0.00 54 1019.5
20260903172249 22 221 4.8 8.0 0.00 0.00 0.00 54 1019.7
20260903172149 22 221 4.8 8.0 0.00 0.00 0.00 54 1019.7
20260903172125 22 223 6.4 14.5 0.00 0.00 0.00 54 1019.5
20260903172121 22 221 4.8 8.0 0.00 0.00 0.00 54 1019.7
20260903172117 22 223 4.8 9.7 0.00 0.00 0.00 54 1019.7
20260903171842 22 223 6.4 14.5 0.00 0.00 0.00 54 1019.5
20260903171740 22 222 6.4 14.5 0.00 0.00 0.00 54 1019.7
20260903171638 22 246 4.8 14.5 0.00 0.00 0.00 55 1019.7
20260903171535 22 241 4.8 14.5 0.00 0.00 0.00 54 1019.7
20260903171436 22 241 4.8 14.5 0.00 0.00 0.00 54 1019.7
20260903171404 22 241 4.8 14.5 0.00 0.00 0.00 54 1019.5
20260903171332 22 223 4.8 14.5 0.00 0.00 0.00 54 1019.5
20260903171233 22 240 4.8 14.5 0.00 0.00 0.00 54 1019.7
20260903171131 22 240 3.2 14.5 0.00 0.00 0.00 53 1019.5
20260903171032 22 225 3.2 14.5 0.00 0.00 0.00 54 1019.5
20260903170930 22 256 3.2 14.5 0.00 0.00 0.00 54 1019.5
20260903170905 22 235 3.2 14.5 0.00 0.00 0.00 54 1019.7
20260903170829 22 234 3.2 6.4 0.00 0.00 0.00 54 1019.7
20260903170726 22 234 3.2 8.0 0.00 0.00 0.00 53 1019.7
20260903170626 22 234 3.2 9.7 0.00 0.00 0.00 54 1019.7
20260903170520 23 233 3.2 9.7 0.00 0.00 0.00 54 1019.7
20260903170404 23 234 3.2 9.7 0.00 0.00 0.00 54 1019.7
20260903170321 23 234 4.8 9.7 0.00 0.00 0.00 54 1019.7
20260903170221 23 234 4.8 16.1 0.00 0.00 0.00 54 1019.5
20260903170120 23 234 6.4 16.1 0.00 0.00 0.00 54 1019.7
20260903170016 23 233 6.4 16.1 0.00 0.00 0.00 54 1019.7
20260903165902 23 231 6.4 16.1 0.00 0.00 0.00 54 1019.7
20260903165814 23 231 6.4 16.1 0.00 0.00 0.00 54 1019.7
20260903165714 23 221 6.4 16.1 0.00 0.00 0.00 54 1019.7
20260903165627 23 275 6.4 16.1 0.00 0.00 0.00 53 1019.7
20260903165623 23 271 6.4 16.1 0.00 0.00 0.00 52 1019.5
20260903165619 23 267 6.4 16.1 0.00 0.00 0.00 53 1019.7
20260903165615 23 277 6.4 16.1 0.00 0.00 0.00 53 1019.7
20260903165308 23 234 6.4 16.1 0.00 0.00 0.00 52 1019.7
20260903165209 23 232 6.4 12.9 0.00 0.00 0.00 53 1019.7
20260903165107 23 290 4.8 12.9 0.00 0.00 0.00 53 1019.7
20260903165008 23 238 4.8 12.9 0.00 0.00 0.00 53 1019.7
20260903164902 23 253 4.8 12.9 0.00 0.00 0.00 53 1019.8
20260903164808 23 257 4.8 12.9 0.00 0.00 0.00 53 1019.8
20260903164708 23 270 4.8 12.9 0.00 0.00 0.00 53 1019.8
20260903164624 23 272 4.8 12.9 0.00 0.00 0.00 53 1019.7
20260903164618 23 252 4.8 9.7 0.00 0.00 0.00 53 1019.8
20260903164614 23 231 4.8 9.7 0.00 0.00 0.00 53 1019.8
20260903164306 23 224 4.8 9.7 0.00 0.00 0.00 53 1019.8
20260903164204 23 244 4.8 9.7 0.00 0.00 0.00 53 1019.7
20260903164102 23 227 4.8 9.7 0.00 0.00 0.00 53 1019.7
20260903164002 23 279 4.8 9.7 0.00 0.00 0.00 53 1019.7
20260903163902 23 231 4.8 11.3 0.00 0.00 0.00 54 1019.8
20260903163802 23 240 4.8 11.3 0.00 0.00 0.00 53 1019.8
20260903163701 23 240 4.8 11.3 0.00 0.00 0.00 53 1019.7
20260903163601 23 265 4.8 11.3 0.00 0.00 0.00 54 1019.7
20260903163502 23 270 4.8 11.3 0.00 0.00 0.00 54 1019.7
20260903163401 23 281 4.8 11.3 0.00 0.00 0.00 53 1019.7
20260903163300 23 246 4.8 11.3 0.00 0.00 0.00 52 1019.7
20260903163200 23 215 6.4 11.3 0.00 0.00 0.00 53 1019.7
20260903163100 23 242 6.4 11.3 0.00 0.00 0.00 53 1019.7
20260903163000 23 240 4.8 11.3 0.00 0.00 0.00 54 1019.7
20260903162904 23 229 4.8 11.3 0.00 0.00 0.00 53 1019.7
20260903162900 23 230 4.8 11.3 0.00 0.00 0.00 53 1019.7
20260903162759 23 232 4.8 11.3 0.00 0.00 0.00 53 1019.7
20260903162658 23 233 4.8 11.3 0.00 0.00 0.00 53 1019.5
20260903162559 23 229 6.4 11.3 0.00 0.00 0.00 53 1019.5
20260903162456 23 256 6.4 12.9 0.00 0.00 0.00 53 1019.5
20260903162400 23 269 6.4 14.5 0.00 0.00 0.00 53 1019.5
20260903162353 23 268 6.4 14.5 0.00 0.00 0.00 53 1019.5
20260903162250 23 270 6.4 14.5 0.00 0.00 0.00 53 1019.5
20260903162150 23 284 8.0 14.5 0.00 0.00 0.00 52 1019.5
20260903162123 23 240 8.0 14.5 0.00 0.00 0.00 52 1019.5
20260903162117 23 259 8.0 14.5 0.00 0.00 0.00 53 1019.5
20260903162113 23 245 8.0 14.5 0.00 0.00 0.00 52 1019.5
20260903161847 23 226 8.0 14.5 0.00 0.00 0.00 52 1019.5
20260903161742 23 228 9.7 14.5 0.00 0.00 0.00 52 1019.5
20260903161642 23 266 9.7 14.5 0.00 0.00 0.00 51 1019.7
20260903161542 23 254 9.7 14.5 0.00 0.00 0.00 51 1019.7
20260903161442 23 271 9.7 14.5 0.00 0.00 0.00 51 1019.7
20260903161400 23 241 9.7 16.1 0.00 0.00 0.00 51 1019.7
20260903161342 23 237 9.7 16.1 0.00 0.00 0.00 51 1019.7
20260903161238 23 252 9.7 16.1 0.00 0.00 0.00 51 1019.7
20260903161138 23 259 9.7 17.7 0.00 0.00 0.00 51 1019.7
20260903161038 23 258 9.7 17.7 0.00 0.00 0.00 52 1019.7
20260903160938 23 252 9.7 17.7 0.00 0.00 0.00 51 1019.7
20260903160901 23 265 9.7 17.7 0.00 0.00 0.00 52 1019.7
20260903160836 23 272 9.7 17.7 0.00 0.00 0.00 52 1019.7
20260903160736 23 267 11.3 17.7 0.00 0.00 0.00 51 1019.7
20260903160636 23 252 11.3 19.3 0.00 0.00 0.00 51 1019.7
20260903160536 23 261 11.3 19.3 0.00 0.00 0.00 51 1019.7
20260903160436 23 277 11.3 20.9 0.00 0.00 0.00 51 1019.7
20260903160401 23 281 11.3 20.9 0.00 0.00 0.00 51 1019.7
20260903160336 23 254 11.3 20.9 0.00 0.00 0.00 51 1019.7
20260903160236 23 215 11.3 20.9 0.00 0.00 0.00 51 1019.8
20260903160136 23 248 11.3 20.9 0.00 0.00 0.00 51 1019.8
20260903160037 23 267 11.3 20.9 0.00 0.00 0.00 51 1019.8
20260903155937 23 276 11.3 20.9 0.00 0.00 0.00 50 1019.8
20260903155902 23 234 11.3 20.9 0.00 0.00 0.00 50 1019.8
20260903155836 23 277 11.3 20.9 0.00 0.00 0.00 50 1019.8
20260903155736 23 263 11.3 20.9 0.00 0.00 0.00 50 1019.8
20260903155635 23 247 11.3 20.9 0.00 0.00 0.00 50 1019.8
20260903155534 23 283 11.3 20.9 0.00 0.00 0.00 50 1019.8
20260903155434 23 277 11.3 20.9 0.00 0.00 0.00 51 1019.7
20260903155400 23 251 11.3 20.9 0.00 0.00 0.00 51 1019.7
20260903155334 23 236 11.3 20.9 0.00 0.00 0.00 51 1019.7
20260903155234 23 275 11.3 20.9 0.00 0.00 0.00 50 1019.7
20260903155134 23 285 11.3 20.9 0.00 0.00 0.00 50 1019.7
20260903155033 23 268 11.3 20.9 0.00 0.00 0.00 50 1019.7
20260903154932 23 263 11.3 20.9 0.00 0.00 0.00 51 1019.7
20260903154901 23 262 11.3 20.9 0.00 0.00 0.00 51 1019.7
20260903154832 23 252 11.3 20.9 0.00 0.00 0.00 51 1019.7
20260903154732 23 263 11.3 20.9 0.00 0.00 0.00 51 1019.7
20260903154632 23 263 11.3 20.9 0.00 0.00 0.00 51 1019.7
20260903154621 23 256 11.3 17.7 0.00 0.00 0.00 51 1019.7
20260903154615 23 250 11.3 17.7 0.00 0.00 0.00 51 1019.7
20260903154612 23 276 11.3 17.7 0.00 0.00 0.00 51 1019.7
20260903154330 23 242 11.3 17.7 0.00 0.00 0.00 51 1019.7
20260903154230 23 264 11.3 17.7 0.00 0.00 0.00 50 1019.8
20260903154130 23 240 11.3 17.7 0.00 0.00 0.00 50 1019.8
20260903154029 23 259 11.3 17.7 0.00 0.00 0.00 50 1019.8
20260903153929 23 267 11.3 17.7 0.00 0.00 0.00 51 1019.8
20260903153901 23 256 11.3 17.7 0.00 0.00 0.00 51 1019.8
20260903153830 23 293 11.3 17.7 0.00 0.00 0.00 50 1019.8
20260903153730 23 269 11.3 17.7 0.00 0.00 0.00 50 1019.8
20260903153630 23 235 11.3 19.3 0.00 0.00 0.00 50 1019.8
20260903153532 23 286 11.3 19.3 0.00 0.00 0.00 51 1019.9
20260903153429 23 254 11.3 19.3 0.00 0.00 0.00 50 1019.8
20260903153402 23 253 11.3 19.3 0.00 0.00 0.00 50 1019.8
20260903153329 23 261 11.3 19.3 0.00 0.00 0.00 50 1019.8
20260903153230 23 275 9.7 19.3 0.00 0.00 0.00 50 1019.8
20260903153129 23 266 9.7 19.3 0.00 0.00 0.00 50 1019.8
20260903153029 23 279 9.7 19.3 0.00 0.00 0.00 50 1019.8
20260903152929 23 267 9.7 19.3 0.00 0.00 0.00 50 1019.8
20260903152901 23 235 9.7 19.3 0.00 0.00 0.00 50 1019.8
20260903152829 23 251 9.7 19.3 0.00 0.00 0.00 50 1019.8
20260903152729 23 262 8.0 19.3 0.00 0.00 0.00 50 1019.8
20260903152629 23 250 9.7 17.7 0.00 0.00 0.00 50 1019.8
20260903152529 24 233 9.7 17.7 0.00 0.00 0.00 50 1019.8
20260903152429 24 281 9.7 17.7 0.00 0.00 0.00 50 1019.8
20260903152400 24 257 11.3 17.7 0.00 0.00 0.00 49 1019.8
20260903152329 24 263 11.3 17.7 0.00 0.00 0.00 49 1019.8
20260903152229 24 239 11.3 17.7 0.00 0.00 0.00 49 1019.9
20260903152129 24 257 11.3 19.3 0.00 0.00 0.00 49 1019.9
20260903152031 24 269 11.3 19.3 0.00 0.00 0.00 50 1019.8
20260903151929 24 271 11.3 19.3 0.00 0.00 0.00 50 1019.8
20260903151900 24 274 12.9 19.3 0.00 0.00 0.00 50 1019.8
20260903151829 24 266 12.9 22.5 0.00 0.00 0.00 49 1019.8
20260903151728 24 267 12.9 22.5 0.00 0.00 0.00 49 1019.8
20260903151628 24 269 12.9 22.5 0.00 0.00 0.00 49 1019.8
20260903151528 24 252 12.9 22.5 0.00 0.00 0.00 48 1019.9
20260903151429 24 286 12.9 22.5 0.00 0.00 0.00 48 1019.9
20260903151400 24 263 12.9 22.5 0.00 0.00 0.00 48 1019.9
20260903151328 24 234 12.9 22.5 0.00 0.00 0.00 48 1019.9
20260903151227 24 248 12.9 22.5 0.00 0.00 0.00 48 1019.9
20260903151123 24 274 12.9 22.5 0.00 0.00 0.00 48 1019.9
20260903151022 24 263 12.9 22.5 0.00 0.00 0.00 49 1019.8
20260903150922 24 303 11.3 22.5 0.00 0.00 0.00 48 1019.9
20260903150902 24 296 11.3 22.5 0.00 0.00 0.00 48 1019.9
20260903150844 24 272 12.9 22.5 0.00 0.00 0.00 49 1019.8
20260903150840 24 263 11.3 20.9 0.00 0.00 0.00 48 1019.8
20260903150836 24 261 11.3 20.9 0.00 0.00 0.00 49 1019.9
20260903150618 24 304 11.3 20.9 0.00 0.00 0.00 49 1019.8
20260903150613 24 256 11.3 20.9 0.00 0.00 0.00 49 1019.8
20260903150609 24 280 12.9 22.5 0.00 0.00 0.00 49 1019.8
20260903150317 24 281 12.9 22.5 0.00 0.00 0.00 50 1019.9
20260903150215 24 257 12.9 22.5 0.00 0.00 0.00 49 1019.8
20260903150110 24 261 12.9 24.1 0.00 0.00 0.00 49 1019.8
20260903150010 24 265 12.9 24.1 0.00 0.00 0.00 49 1019.8
20260903145913 24 274 14.5 24.1 0.00 0.00 0.00 49 1019.8
20260903145852 24 234 14.5 24.1 0.00 0.00 0.00 49 1019.8
20260903145810 24 279 14.5 24.1 0.00 0.00 0.00 49 1019.7
20260903145709 24 265 14.5 24.1 0.00 0.00 0.00 48 1019.8
20260903145604 24 254 14.5 24.1 0.00 0.00 0.00 48 1019.8
20260903145504 24 266 14.5 24.1 0.00 0.00 0.00 49 1019.9
20260903145405 24 273 14.5 24.1 0.00 0.00 0.00 48 1019.9
20260903145346 24 287 14.5 24.1 0.00 0.00 0.00 48 1019.9
20260903145306 25 290 12.9 24.1 0.00 0.00 0.00 48 1019.9
20260903145203 25 259 12.9 24.1 0.00 0.00 0.00 49 1019.9
20260903145104 25 258 12.9 24.1 0.00 0.00 0.00 49 1019.8
20260903145004 25 292 12.9 24.1 0.00 0.00 0.00 49 1019.9
20260903144904 25 259 12.9 24.1 0.00 0.00 0.00 49 1019.9
20260903144840 25 277 12.9 22.5 0.00 0.00 0.00 49 1019.9
20260903144804 25 261 12.9 20.9 0.00 0.00 0.00 50 1019.8
20260903144704 25 261 12.9 22.5 0.00 0.00 0.00 49 1019.8
20260903144604 25 270 12.9 22.5 0.00 0.00 0.00 49 1019.8
20260903144504 25 259 12.9 22.5 0.00 0.00 0.00 49 1019.9
20260903144404 25 240 11.3 22.5 0.00 0.00 0.00 49 1019.8
20260903144340 25 246 11.3 22.5 0.00 0.00 0.00 49 1019.8
20260903144302 25 242 11.3 22.5 0.00 0.00 0.00 49 1019.9
20260903144203 25 246 11.3 22.5 0.00 0.00 0.00 49 1019.9
20260903144102 25 260 11.3 22.5 0.00 0.00 0.00 49 1019.9
20260903144002 25 285 11.3 22.5 0.00 0.00 0.00 49 1019.9
20260903143901 25 246 9.7 22.5 0.00 0.00 0.00 49 1019.9
20260903143838 25 240 9.7 22.5 0.00 0.00 0.00 49 1019.9
20260903143801 25 246 9.7 22.5 0.00 0.00 0.00 49 1019.9
20260903143701 25 249 9.7 19.3 0.00 0.00 0.00 51 1019.8
20260903143601 24 282 9.7 19.3 0.00 0.00 0.00 51 1019.8
20260903143501 24 284 9.7 19.3 0.00 0.00 0.00 50 1019.8
20260903143402 24 293 11.3 19.3 0.00 0.00 0.00 50 1019.8
20260903143338 24 248 11.3 19.3 0.00 0.00 0.00 51 1019.8
20260903143301 24 233 11.3 19.3 0.00 0.00 0.00 51 1019.8
20260903143201 24 238 11.3 19.3 0.00 0.00 0.00 50 1019.7
20260903143101 24 235 11.3 19.3 0.00 0.00 0.00 50 1019.8
20260903143001 24 237 11.3 19.3 0.00 0.00 0.00 50 1019.8
20260903142901 24 265 11.3 19.3 0.00 0.00 0.00 50 1019.9
20260903142838 24 284 11.3 19.3 0.00 0.00 0.00 50 1019.9
20260903142801 24 246 12.9 25.7 0.00 0.00 0.00 50 1019.8
20260903142701 24 269 12.9 25.7 0.00 0.00 0.00 51 1019.9
20260903142602 24 240 11.3 25.7 0.00 0.00 0.00 51 1019.9
20260903142501 24 252 11.3 25.7 0.00 0.00 0.00 50 1019.9
20260903142402 24 263 11.3 25.7 0.00 0.00 0.00 50 1019.9
20260903142336 24 277 11.3 25.7 0.00 0.00 0.00 50 1019.9
20260903142300 24 219 11.3 25.7 0.00 0.00 0.00 50 1019.9
20260903142200 24 279 11.3 25.7 0.00 0.00 0.00 50 1019.9
20260903142101 24 273 11.3 25.7 0.00 0.00 0.00 49 1019.9
20260903142001 24 248 11.3 25.7 0.00 0.00 0.00 49 1020.0
20260903141900 24 243 11.3 25.7 0.00 0.00 0.00 50 1020.0
20260903141836 24 242 11.3 25.7 0.00 0.00 0.00 50 1020.0
20260903141800 24 236 11.3 24.1 0.00 0.00 0.00 48 1019.9
20260903141658 24 217 11.3 19.3 0.00 0.00 0.00 48 1019.9
20260903141558 25 214 12.9 19.3 0.00 0.00 0.00 48 1019.9
20260903141458 25 208 12.9 20.9 0.00 0.00 0.00 48 1020.0
20260903141358 25 218 12.9 22.5 0.00 0.00 0.00 48 1019.9
20260903141336 25 204 12.9 22.5 0.00 0.00 0.00 48 1019.9
20260903141257 25 272 14.5 22.5 0.00 0.00 0.00 48 1020.0
20260903141152 25 195 14.5 22.5 0.00 0.00 0.00 48 1019.9
20260903141103 25 272 12.9 24.1 0.00 0.00 0.00 47 1020.0
20260903141055 25 220 14.5 22.5 0.00 0.00 0.00 48 1019.9
20260903141051 25 219 14.5 24.1 0.00 0.00 0.00 48 1019.9
20260903141047 25 276 12.9 24.1 0.00 0.00 0.00 47 1020.0
20260903140752 25 279 12.9 24.1 0.00 0.00 0.00 48 1020.0
20260903140646 25 253 12.9 24.1 0.00 0.00 0.00 49 1020.0
20260903140546 25 293 12.9 24.1 0.00 0.00 0.00 48 1020.0
20260903140445 25 233 11.3 24.1 0.00 0.00 0.00 48 1020.0
20260903140346 25 232 11.3 24.1 0.00 0.00 0.00 49 1020.1
20260903140336 25 200 11.3 24.1 0.00 0.00 0.00 49 1020.1
20260903140245 25 250 11.3 24.1 0.00 0.00 0.00 49 1020.0
20260903140142 25 205 11.3 24.1 0.00 0.00 0.00 50 1020.0
20260903140042 25 239 11.3 24.1 0.00 0.00 0.00 49 1020.0
20260903135942 25 281 11.3 22.5 0.00 0.00 0.00 48 1020.0
20260903135842 25 259 11.3 22.5 0.00 0.00 0.00 49 1020.1
20260903135834 25 251 11.3 22.5 0.00 0.00 0.00 49 1020.1
20260903135740 25 196 11.3 22.5 0.00 0.00 0.00 49 1020.1
20260903135634 24 273 12.9 22.5 0.00 0.00 0.00 50 1020.1
20260903135534 24 244 12.9 22.5 0.00 0.00 0.00 50 1020.1
20260903135434 24 264 12.9 24.1 0.00 0.00 0.00 50 1020.1
20260903135336 24 252 12.9 30.6 0.00 0.00 0.00 50 1020.1
20260903135331 24 237 12.9 30.6 0.00 0.00 0.00 50 1020.1
20260903135233 24 265 12.9 30.6 0.00 0.00 0.00 51 1020.1
20260903135134 24 221 12.9 30.6 0.00 0.00 0.00 51 1020.1
20260903135031 24 202 12.9 30.6 0.00 0.00 0.00 51 1020.1
20260903134932 24 275 12.9 30.6 0.00 0.00 0.00 51 1020.1
20260903134834 24 221 12.9 30.6 0.00 0.00 0.00 50 1020.1
20260903134830 24 229 12.9 30.6 0.00 0.00 0.00 50 1020.1
20260903134732 24 235 12.9 30.6 0.00 0.00 0.00 50 1020.1
20260903134632 24 239 12.9 30.6 0.00 0.00 0.00 50 1020.1
20260903134530 24 192 12.9 30.6 0.00 0.00 0.00 51 1020.1
20260903134430 24 233 12.9 25.7 0.00 0.00 0.00 51 1020.1
20260903134330 24 246 12.9 20.9 0.00 0.00 0.00 52 1020.2
20260903134229 24 209 12.9 20.9 0.00 0.00 0.00 51 1020.1
20260903134129 24 255 12.9 20.9 0.00 0.00 0.00 50 1020.2
20260903134030 24 279 12.9 22.5 0.00 0.00 0.00 50 1020.3
20260903133931 23 219 12.9 22.5 0.00 0.00 0.00 50 1020.3
20260903133829 23 263 12.9 22.5 0.00 0.00 0.00 51 1020.2
20260903133729 23 273 14.5 22.5 0.00 0.00 0.00 50 1020.2
20260903133629 23 265 14.5 22.5 0.00 0.00 0.00 51 1020.2
20260903133529 23 278 14.5 24.1 0.00 0.00 0.00 51 1020.1
20260903133429 23 256 14.5 24.1 0.00 0.00 0.00 51 1020.1
20260903133330 23 267 14.5 24.1 0.00 0.00 0.00 51 1020.1
20260903133229 23 271 14.5 24.1 0.00 0.00 0.00 51 1020.1
20260903133129 23 246 14.5 24.1 0.00 0.00 0.00 50 1020.1
20260903133028 23 264 12.9 24.1 0.00 0.00 0.00 51 1020.2
20260903132929 23 229 12.9 24.1 0.00 0.00 0.00 51 1020.1
20260903132829 23 266 12.9 24.1 0.00 0.00 0.00 52 1020.1
20260903132729 23 264 11.3 24.1 0.00 0.00 0.00 51 1020.1
20260903132629 23 274 11.3 24.1 0.00 0.00 0.00 51 1020.2
20260903132529 23 255 11.3 19.3 0.00 0.00 0.00 52 1020.2
20260903132429 23 262 11.3 19.3 0.00 0.00 0.00 52 1020.3
20260903132330 23 252 11.3 19.3 0.00 0.00 0.00 53 1020.2
20260903132228 23 278 11.3 19.3 0.00 0.00 0.00 53 1020.2
20260903132128 23 284 11.3 19.3 0.00 0.00 0.00 53 1020.2
20260903132029 23 227 11.3 19.3 0.00 0.00 0.00 53 1020.1
20260903131928 23 276 12.9 19.3 0.00 0.00 0.00 53 1020.2
20260903131828 23 244 12.9 19.3 0.00 0.00 0.00 52 1020.3
20260903131724 23 235 11.3 19.3 0.00 0.00 0.00 53 1020.3
20260903131625 23 219 11.3 19.3 0.00 0.00 0.00 52 1020.2
20260903131524 23 260 12.9 20.9 0.00 0.00 0.00 52 1020.2
20260903131424 23 271 11.3 20.9 0.00 0.00 0.00 52 1020.4
20260903131324 23 223 11.3 20.9 0.00 0.00 0.00 53 1020.3
20260903131217 23 270 11.3 20.9 0.00 0.00 0.00 53 1020.3
20260903131118 23 241 11.3 20.9 0.00 0.00 0.00 52 1020.3
20260903131017 23 260 11.3 20.9 0.00 0.00 0.00 54 1020.3
20260903130917 23 259 11.3 20.9 0.00 0.00 0.00 53 1020.3
20260903130817 23 238 11.3 20.9 0.00 0.00 0.00 53 1020.4
20260903130714 23 275 11.3 20.9 0.00 0.00 0.00 53 1020.3
20260903130616 23 275 11.3 19.3 0.00 0.00 0.00 53 1020.3
20260903130514 23 255 11.3 19.3 0.00 0.00 0.00 53 1020.3
20260903130414 23 207 12.9 19.3 0.00 0.00 0.00 53 1020.3
20260903130312 23 236 12.9 24.1 0.00 0.00 0.00 53 1020.3
20260903130212 23 284 12.9 24.1 0.00 0.00 0.00 52 1020.3
20260903130111 23 260 12.9 24.1 0.00 0.00 0.00 52 1020.3
20260903130012 23 281 12.9 24.1 0.00 0.00 0.00 52 1020.2
20260903125912 23 238 12.9 24.1 0.00 0.00 0.00 52 1020.3
20260903125812 23 276 12.9 24.1 0.00 0.00 0.00 53 1020.3
20260903125807 23 251 12.9 24.1 0.00 0.00 0.00 53 1020.3
20260903125709 23 269 12.9 24.1 0.00 0.00 0.00 52 1020.2
20260903125609 23 240 12.9 24.1 0.00 0.00 0.00 52 1020.3
20260903125510 23 261 12.9 24.1 0.00 0.00 0.00 51 1020.3
20260903125410 23 279 12.9 24.1 0.00 0.00 0.00 52 1020.3
20260903125308 23 277 12.9 20.9 0.00 0.00 0.00 52 1020.3
20260903125208 23 259 12.9 20.9 0.00 0.00 0.00 52 1020.2
20260903125108 23 243 12.9 20.9 0.00 0.00 0.00 52 1020.2
20260903125008 23 306 12.9 20.9 0.00 0.00 0.00 52 1020.2
20260903124908 23 246 11.3 20.9 0.00 0.00 0.00 52 1020.2
20260903124808 23 246 11.3 20.9 0.00 0.00 0.00 52 1020.1
20260903124753 23 286 11.3 22.5 0.00 0.00 0.00 51 1020.1
20260903124746 23 271 11.3 20.9 0.00 0.00 0.00 51 1020.2
20260903124742 23 260 11.3 20.9 0.00 0.00 0.00 52 1020.2
20260903124521 23 273 11.3 22.5 0.00 0.00 0.00 52 1020.2
20260903124517 23 260 11.3 22.5 0.00 0.00 0.00 52 1020.1
20260903124301 23 275 11.3 22.5 0.00 0.00 0.00 51 1020.1
20260903124202 23 279 11.3 22.5 0.00 0.00 0.00 51 1020.1
20260903124102 23 257 11.3 22.5 0.00 0.00 0.00 52 1020.2
20260903124001 23 259 11.3 22.5 0.00 0.00 0.00 52 1020.2
20260903123902 23 284 11.3 22.5 0.00 0.00 0.00 52 1020.1
20260903123806 23 311 11.3 22.5 0.00 0.00 0.00 51 1020.1
20260903123801 23 321 11.3 22.5 0.00 0.00 0.00 51 1020.1
20260903123701 23 338 11.3 22.5 0.00 0.00 0.00 51 1020.1
20260903123601 23 275 11.3 22.5 0.00 0.00 0.00 51 1020.2
20260903123501 23 257 9.7 22.5 0.00 0.00 0.00 50 1020.2
20260903123401 24 278 9.7 22.5 0.00 0.00 0.00 51 1020.2
20260903123305 24 283 9.7 22.5 0.00 0.00 0.00 51 1020.3
20260903123301 24 273 9.7 22.5 0.00 0.00 0.00 51 1020.3
20260903123201 24 288 9.7 22.5 0.00 0.00 0.00 51 1020.2
20260903123102 24 271 9.7 19.3 0.00 0.00 0.00 51 1020.2
20260903123001 24 280 9.7 19.3 0.00 0.00 0.00 52 1020.2
20260903122901 24 256 9.7 19.3 0.00 0.00 0.00 52 1020.2
20260903122805 24 275 9.7 19.3 0.00 0.00 0.00 51 1020.2
20260903122801 24 296 9.7 19.3 0.00 0.00 0.00 51 1020.2
20260903122701 24 289 9.7 19.3 0.00 0.00 0.00 52 1020.2
20260903122601 24 243 9.7 19.3 0.00 0.00 0.00 51 1020.2
20260903122501 24 254 11.3 19.3 0.00 0.00 0.00 50 1020.3
20260903122401 24 280 11.3 22.5 0.00 0.00 0.00 51 1020.2
20260903122305 24 283 11.3 22.5 0.00 0.00 0.00 51 1020.3
20260903122300 24 271 11.3 22.5 0.00 0.00 0.00 51 1020.3
20260903122200 24 253 11.3 22.5 0.00 0.00 0.00 51 1020.3
20260903122100 24 296 12.9 24.1 0.00 0.00 0.00 50 1020.2
20260903122000 24 271 12.9 24.1 0.00 0.00 0.00 50 1020.3
20260903121858 24 250 12.9 24.1 0.00 0.00 0.00 50 1020.3
20260903121801 24 252 12.9 24.1 0.00 0.00 0.00 50 1020.3
20260903121753 24 268 12.9 24.1 0.00 0.00 0.00 50 1020.3
20260903121652 24 266 14.5 24.1 0.00 0.00 0.00 50 1020.3
20260903121551 24 266 14.5 24.1 0.00 0.00 0.00 50 1020.3
20260903121453 24 271 12.9 24.1 0.00 0.00 0.00 50 1020.3
20260903121352 24 238 14.5 24.1 0.00 0.00 0.00 50 1020.2
20260903121302 24 269 14.5 24.1 0.00 0.00 0.00 50 1020.3
20260903121245 24 265 14.5 24.1 0.00 0.00 0.00 50 1020.3
20260903121146 24 256 14.5 24.1 0.00 0.00 0.00 49 1020.3
20260903121045 24 282 14.5 25.7 0.00 0.00 0.00 50 1020.4
20260903121025 24 255 14.5 25.7 0.00 0.00 0.00 50 1020.4
20260903121020 24 240 14.5 25.7 0.00 0.00 0.00 50 1020.4
20260903121014 24 240 14.5 25.7 0.00 0.00 0.00 50 1020.4
20260903120746 24 284 14.5 25.7 0.00 0.00 0.00 50 1020.4
20260903120645 24 279 14.5 25.7 0.00 0.00 0.00 49 1020.4
20260903120545 24 317 14.5 25.7 0.00 0.00 0.00 48 1020.3
20260903120526 24 267 14.5 25.7 0.00 0.00 0.00 48 1020.3
20260903120517 24 263 14.5 25.7 0.00 0.00 0.00 49 1020.3
20260903120513 24 249 14.5 25.7 0.00 0.00 0.00 49 1020.3
20260903120246 24 271 14.5 25.7 0.00 0.00 0.00 48 1020.3
20260903120144 24 256 14.5 25.7 0.00 0.00 0.00 48 1020.4
20260903120045 24 284 14.5 25.7 0.00 0.00 0.00 49 1020.4
20260903120029 24 256 16.1 29.0 0.00 0.00 0.00 49 1020.4
20260903120018 24 291 16.1 29.0 0.00 0.00 0.00 49 1020.4
20260903120014 24 275 16.1 29.0 0.00 0.00 0.00 49 1020.5
20260903115743 24 261 16.1 29.0 0.00 0.00 0.00 49 1020.4
20260903115643 24 297 16.1 29.0 0.00 0.00 0.00 50 1020.4
20260903115538 24 246 16.1 29.0 0.00 0.00 0.00 48 1020.5
20260903115437 24 288 14.5 29.0 0.00 0.00 0.00 48 1020.4
20260903115337 24 273 14.5 29.0 0.00 0.00 0.00 49 1020.4
20260903115305 24 263 14.5 29.0 0.00 0.00 0.00 48 1020.4
20260903115238 24 244 14.5 29.0 0.00 0.00 0.00 48 1020.4
20260903115138 24 242 14.5 29.0 0.00 0.00 0.00 48 1020.4
20260903115036 24 257 14.5 29.0 0.00 0.00 0.00 48 1020.5
20260903114936 24 298 12.9 24.1 0.00 0.00 0.00 48 1020.5
20260903114836 24 248 12.9 24.1 0.00 0.00 0.00 48 1020.5
20260903114801 24 220 12.9 24.1 0.00 0.00 0.00 48 1020.5
20260903114736 24 214 12.9 24.1 0.00 0.00 0.00 49 1020.5
20260903114636 24 256 12.9 24.1 0.00 0.00 0.00 49 1020.5
20260903114536 24 277 12.9 24.1 0.00 0.00 0.00 48 1020.5
20260903114525 24 269 12.9 24.1 0.00 0.00 0.00 48 1020.5
20260903114516 24 312 12.9 24.1 0.00 0.00 0.00 48 1020.5
20260903114512 24 285 12.9 24.1 0.00 0.00 0.00 48 1020.5
20260903114236 24 323 12.9 24.1 0.00 0.00 0.00 48 1020.5
20260903114136 24 257 12.9 24.1 0.00 0.00 0.00 48 1020.5
20260903114036 24 289 12.9 24.1 0.00 0.00 0.00 49 1020.6
20260903114029 24 269 14.5 24.1 0.00 0.00 0.00 49 1020.7
20260903114018 24 275 12.9 24.1 0.00 0.00 0.00 49 1020.6
20260903114013 24 263 12.9 24.1 0.00 0.00 0.00 49 1020.6
20260903113732 24 281 14.5 24.1 0.00 0.00 0.00 49 1020.7
20260903113632 24 236 12.9 24.1 0.00 0.00 0.00 50 1020.7
20260903113531 24 250 12.9 24.1 0.00 0.00 0.00 50 1020.6
20260903113432 24 260 12.9 24.1 0.00 0.00 0.00 50 1020.6
20260903113332 24 315 14.5 24.1 0.00 0.00 0.00 49 1020.5
20260903113302 24 267 14.5 24.1 0.00 0.00 0.00 50 1020.6
20260903113231 24 222 14.5 24.1 0.00 0.00 0.00 49 1020.6
20260903113131 24 306 14.5 25.7 0.00 0.00 0.00 49 1020.6
20260903113031 24 324 14.5 25.7 0.00 0.00 0.00 49 1020.7
20260903112931 24 274 14.5 25.7 0.00 0.00 0.00 48 1020.6
20260903112831 24 262 14.5 25.7 0.00 0.00 0.00 49 1020.7
20260903112801 24 263 14.5 25.7 0.00 0.00 0.00 49 1020.7
20260903112732 24 263 14.5 25.7 0.00 0.00 0.00 49 1020.7
20260903112632 24 240 14.5 25.7 0.00 0.00 0.00 51 1020.7
20260903112532 24 258 14.5 25.7 0.00 0.00 0.00 50 1020.6
20260903112432 24 278 14.5 25.7 0.00 0.00 0.00 49 1020.6
20260903112332 24 281 14.5 25.7 0.00 0.00 0.00 49 1020.7
20260903112305 24 315 12.9 25.7 0.00 0.00 0.00 49 1020.7
20260903112232 24 275 12.9 25.7 0.00 0.00 0.00 49 1020.7
20260903112132 24 281 12.9 22.5 0.00 0.00 0.00 52 1020.8
20260903112031 24 296 12.9 22.5 0.00 0.00 0.00 51 1020.8
20260903111932 24 329 12.9 24.1 0.00 0.00 0.00 52 1020.8
20260903111832 24 261 12.9 24.1 0.00 0.00 0.00 52 1020.8
20260903111802 24 239 12.9 24.1 0.00 0.00 0.00 52 1020.8
20260903111730 24 262 12.9 24.1 0.00 0.00 0.00 52 1020.8
20260903111629 24 275 14.5 24.1 0.00 0.00 0.00 51 1020.8
20260903111529 24 246 14.5 24.1 0.00 0.00 0.00 51 1020.9
20260903111429 24 263 14.5 24.1 0.00 0.00 0.00 51 1020.9
20260903111329 24 273 14.5 29.0 0.00 0.00 0.00 52 1020.8
20260903111302 24 238 12.9 29.0 0.00 0.00 0.00 52 1020.7
20260903111229 24 282 12.9 29.0 0.00 0.00 0.00 51 1020.7
20260903111129 24 238 12.9 29.0 0.00 0.00 0.00 52 1020.7
20260903111029 23 254 12.9 29.0 0.00 0.00 0.00 51 1020.7
20260903110929 23 245 12.9 29.0 0.00 0.00 0.00 52 1020.7
20260903110830 23 227 12.9 32.2 0.00 0.00 0.00 53 1020.8
20260903110802 23 251 12.9 32.2 0.00 0.00 0.00 53 1020.8
20260903110729 23 252 12.9 32.2 0.00 0.00 0.00 52 1020.8
20260903110629 23 234 12.9 32.2 0.00 0.00 0.00 52 1020.8
20260903110529 23 303 12.9 32.2 0.00 0.00 0.00 52 1020.7
20260903110429 23 232 14.5 32.2 0.00 0.00 0.00 52 1020.7
20260903110329 23 215 14.5 32.2 0.00 0.00 0.00 53 1020.7
20260903110302 23 225 14.5 32.2 0.00 0.00 0.00 53 1020.7
20260903110229 23 251 14.5 32.2 0.00 0.00 0.00 54 1020.7
20260903110129 23 252 16.1 32.2 0.00 0.00 0.00 53 1020.7
20260903110026 23 297 16.1 32.2 0.00 0.00 0.00 52 1020.7
20260903105926 23 213 17.7 32.2 0.00 0.00 0.00 52 1020.7
20260903105826 23 247 17.7 33.8 0.00 0.00 0.00 53 1020.7
20260903105801 23 245 17.7 33.8 0.00 0.00 0.00 53 1020.8
20260903105726 23 254 17.7 33.8 0.00 0.00 0.00 53 1020.8
20260903105626 23 298 17.7 33.8 0.00 0.00 0.00 52 1020.7
20260903105525 23 252 17.7 33.8 0.00 0.00 0.00 53 1020.8
20260903105426 23 288 17.7 33.8 0.00 0.00 0.00 52 1020.8
20260903105326 23 281 17.7 33.8 0.00 0.00 0.00 52 1020.8
20260903105301 23 262 17.7 33.8 0.00 0.00 0.00 52 1020.8
20260903105225 23 267 17.7 33.8 0.00 0.00 0.00 53 1020.8
20260903105125 23 263 16.1 33.8 0.00 0.00 0.00 52 1020.9
20260903105025 23 287 16.1 33.8 0.00 0.00 0.00 53 1020.9
20260903105019 23 244 16.1 30.6 0.00 0.00 0.00 54 1020.8
20260903105011 23 264 14.5 33.8 0.00 0.00 0.00 53 1020.8
20260903105007 23 228 14.5 25.7 0.00 0.00 0.00 53 1020.8
20260903105003 23 277 14.5 25.7 0.00 0.00 0.00 53 1020.8
20260903104748 23 262 16.1 30.6 0.00 0.00 0.00 54 1020.8
20260903104744 23 254 14.5 25.7 0.00 0.00 0.00 53 1020.8
20260903104740 23 248 14.5 25.7 0.00 0.00 0.00 53 1020.8
20260903104736 23 279 14.5 27.4 0.00 0.00 0.00 55 1020.8
20260903104727 23 272 14.5 27.4 0.00 0.00 0.00 54 1020.8
20260903104723 23 258 16.1 27.4 0.00 0.00 0.00 54 1020.8
20260903104249 23 299 16.1 30.6 0.00 0.00 0.00 54 1020.9
20260903104245 23 227 16.1 30.6 0.00 0.00 0.00 54 1020.9
20260903104025 23 278 16.1 30.6 0.00 0.00 0.00 54 1020.8
20260903104017 23 269 16.1 30.6 0.00 0.00 0.00 53 1020.9
20260903104013 23 230 16.1 30.6 0.00 0.00 0.00 54 1020.8